FW7316 Weather Reports


Display with metric or nautical units.
time (UTC)temp
F
wind
direction
speed
MPH
gust
MPH
rain 1hr
in
rain 24hr
in
rain mn
in
humidity
%
barometer
mb
20260508090603 67 355 0.0 6.0 0.00 0.00 0.00 78 1014.5
20260508090359 67 355 1.0 6.0 0.00 0.00 0.00 78 1014.5
20260508090305 67 355 1.0 6.0 0.00 0.00 0.00 78 1014.5
20260508090201 67 355 2.0 6.0 0.00 0.00 0.00 79 1014.5
20260508090059 67 348 4.0 6.0 0.00 0.00 0.00 79 1014.4
20260508085759 67 40 4.0 6.0 0.00 0.00 0.00 78 1014.5
20260508085702 67 44 5.0 5.0 0.00 0.00 0.00 78 1014.5
20260508085459 67 66 4.0 5.0 0.00 0.00 0.00 78 1014.5
20260508085403 67 37 4.0 5.0 0.00 0.00 0.00 78 1014.5
20260508085205 67 26 3.0 5.0 0.00 0.00 0.00 79 1014.6
20260508085103 67 27 4.0 5.0 0.00 0.00 0.00 80 1014.5
20260508085000 67 27 2.0 5.0 0.00 0.00 0.00 81 1014.6
20260508084859 66 27 4.0 5.0 0.00 0.00 0.00 82 1014.6
20260508084804 66 27 0.0 6.0 0.00 0.00 0.00 81 1014.6
20260508084606 66 20 2.0 7.0 0.00 0.00 0.00 81 1014.5
20260508084504 66 44 4.0 7.0 0.00 0.00 0.00 81 1014.5
20260508084359 66 25 2.0 7.0 0.00 0.00 0.00 82 1014.6
20260508084203 66 25 2.0 7.0 0.00 0.00 0.00 81 1014.6
20260508084005 66 31 0.0 7.0 0.00 0.00 0.00 81 1014.6
20260508083903 66 53 4.0 7.0 0.00 0.00 0.00 82 1014.6
20260508083803 66 39 5.0 7.0 0.00 0.00 0.00 82 1014.6
20260508083601 65 50 2.0 4.0 0.00 0.00 0.00 83 1014.6
20260508083503 65 50 3.0 4.0 0.00 0.00 0.00 83 1014.6
20260508083402 65 50 3.0 4.0 0.00 0.00 0.00 83 1014.6
20260508083005 65 50 0.0 4.0 0.00 0.00 0.00 85 1014.6
20260508082902 65 50 0.0 4.0 0.00 0.00 0.00 85 1014.6
20260508082800 64 50 2.0 4.0 0.00 0.00 0.00 85 1014.6
20260508082602 64 44 2.0 3.0 0.00 0.00 0.00 85 1014.6
20260508082459 64 270 1.0 3.0 0.00 0.00 0.00 85 1014.5
20260508082404 64 270 1.0 3.0 0.00 0.00 0.00 84 1014.5
20260508082306 64 270 2.0 3.0 0.00 0.00 0.00 84 1014.5
20260508082200 64 270 1.0 4.0 0.00 0.00 0.00 84 1014.6
20260508081901 64 329 0.0 4.0 0.00 0.00 0.00 84 1014.6
20260508081804 64 329 2.0 4.0 0.00 0.00 0.00 83 1014.6
20260508081703 64 329 1.0 4.0 0.00 0.00 0.00 83 1014.5
20260508081600 64 329 0.0 4.0 0.00 0.00 0.00 84 1014.6
20260508081505 64 329 3.0 4.0 0.00 0.00 0.00 84 1014.6
20260508081402 64 329 2.0 4.0 0.00 0.00 0.00 84 1014.5
20260508081203 64 329 1.0 4.0 0.00 0.00 0.00 84 1014.5
20260508081101 64 329 3.0 4.0 0.00 0.00 0.00 84 1014.6
20260508081002 64 329 3.0 4.0 0.00 0.00 0.00 84 1014.5
20260508080903 64 329 1.0 4.0 0.00 0.00 0.00 84 1014.5
20260508080802 64 329 0.0 4.0 0.00 0.00 0.00 85 1014.6
20260508080700 64 329 0.0 4.0 0.00 0.00 0.00 86 1014.6
20260508080603 64 329 2.0 4.0 0.00 0.00 0.00 86 1014.5
20260508080503 64 329 2.0 4.0 0.00 0.00 0.00 86 1014.5
20260508080406 64 329 3.0 4.0 0.00 0.00 0.00 86 1014.5
20260508080305 63 329 3.0 4.0 0.00 0.00 0.00 85 1014.6
20260508080204 63 329 2.0 4.0 0.00 0.00 0.00 84 1014.5
20260508080139 63 329 4.0 6.0 0.00 0.00 0.00 84 1014.5
20260508080010 63 265 0.0 6.0 0.00 0.00 0.00 84 1014.5
20260508075903 63 265 1.0 6.0 0.00 0.00 0.00 84 1014.5
20260508075800 63 265 1.0 6.0 0.00 0.00 0.00 84 1014.5
20260508075703 63 323 1.0 6.0 0.00 0.00 0.00 84 1014.5
20260508075602 64 329 0.0 6.0 0.00 0.00 0.00 85 1014.5
20260508075501 64 329 1.0 6.0 0.00 0.00 0.00 85 1014.5
20260508075200 63 321 4.0 6.0 0.00 0.00 0.00 86 1014.5
20260508075102 63 309 4.0 6.0 0.00 0.00 0.00 86 1014.5
20260508075005 63 5 4.0 6.0 0.00 0.00 0.00 86 1014.5
20260508074900 63 286 3.0 6.0 0.00 0.00 0.00 87 1014.5
20260508074803 63 338 2.0 6.0 0.00 0.00 0.00 87 1014.5
20260508074703 63 318 2.0 6.0 0.00 0.00 0.00 87 1014.5
20260508074600 63 318 4.0 6.0 0.00 0.00 0.00 88 1014.5
20260508074503 62 309 4.0 5.0 0.00 0.00 0.00 87 1014.5
20260508074402 62 271 2.0 6.0 0.00 0.00 0.00 87 1014.5
20260508074300 62 271 3.0 6.0 0.00 0.00 0.00 87 1014.5
20260508074203 62 268 4.0 6.0 0.00 0.00 0.00 87 1014.5
20260508074102 62 249 4.0 6.0 0.00 0.00 0.00 87 1014.5
20260508074002 62 266 2.0 6.0 0.00 0.00 0.00 87 1014.5
20260508073906 61 280 3.0 6.0 0.00 0.00 0.00 88 1014.5
20260508073802 61 275 4.0 6.0 0.00 0.00 0.00 88 1014.4
20260508073700 61 317 5.0 6.0 0.00 0.00 0.00 87 1014.4
20260508073604 61 274 2.0 6.0 0.00 0.00 0.00 87 1014.5
20260508073503 61 286 4.0 6.0 0.00 0.00 0.00 87 1014.5
20260508073400 61 284 6.0 6.0 0.00 0.00 0.00 87 1014.4
20260508073302 61 279 4.0 6.0 0.00 0.00 0.00 87 1014.4
20260508073202 61 270 3.0 6.0 0.00 0.00 0.00 88 1014.4
20260508073107 61 308 3.0 6.0 0.00 0.00 0.00 87 1014.4
20260508073004 61 275 4.0 6.0 0.00 0.00 0.00 88 1014.4
20260508072902 61 278 5.0 6.0 0.00 0.00 0.00 88 1014.4
20260508072800 60 296 6.0 6.0 0.00 0.00 0.00 87 1014.4
20260508072701 60 269 3.0 7.0 0.00 0.00 0.00 87 1014.3
20260508072603 60 256 5.0 7.0 0.00 0.00 0.00 88 1014.3
20260508072459 60 271 4.0 7.0 0.00 0.00 0.00 88 1014.3
20260508072307 60 258 4.0 7.0 0.00 0.00 0.00 88 1014.3
20260508072200 60 292 2.0 7.0 0.00 0.00 0.00 88 1014.3
20260508072103 60 292 2.0 7.0 0.00 0.00 0.00 88 1014.4
20260508072008 60 276 4.0 7.0 0.00 0.00 0.00 88 1014.4
20260508071902 60 294 4.0 7.0 0.00 0.00 0.00 87 1014.3
20260508071802 60 270 3.0 7.0 0.00 0.00 0.00 88 1014.3
20260508071702 60 265 4.0 6.0 0.00 0.00 0.00 88 1014.3
20260508071600 60 272 6.0 6.0 0.00 0.00 0.00 88 1014.3
20260508071502 60 261 3.0 6.0 0.00 0.00 0.00 88 1014.4
20260508071402 59 267 5.0 6.0 0.00 0.00 0.00 88 1014.4
20260508071300 59 259 3.0 6.0 0.00 0.00 0.00 88 1014.4
20260508071100 59 314 2.0 6.0 0.00 0.00 0.00 88 1014.4
20260508071010 59 303 4.0 6.0 0.00 0.00 0.00 88 1014.4
20260508070904 59 302 4.0 6.0 0.00 0.00 0.00 88 1014.3
20260508070759 59 262 4.0 6.0 0.00 0.00 0.00 88 1014.3
20260508070705 59 266 4.0 6.0 0.00 0.00 0.00 88 1014.3
20260508070602 59 245 4.0 6.0 0.00 0.00 0.00 88 1014.3
20260508070501 59 254 3.0 6.0 0.00 0.00 0.00 88 1014.4
20260508070200 59 280 3.0 5.0 0.00 0.00 0.00 89 1014.3
20260508070005 59 280 2.0 5.0 0.00 0.00 0.00 88 1014.3
20260508065900 59 280 2.0 5.0 0.00 0.00 0.00 89 1014.3
20260508065802 59 280 3.0 5.0 0.00 0.00 0.00 89 1014.3
20260508065703 59 280 0.0 5.0 0.00 0.00 0.00 89 1014.3
20260508065559 58 280 2.0 5.0 0.00 0.00 0.00 90 1014.3
20260508065402 58 275 5.0 5.0 0.00 0.00 0.00 89 1014.3
20260508065300 58 286 5.0 5.0 0.00 0.00 0.00 89 1014.3
20260508065202 58 284 4.0 4.0 0.00 0.00 0.00 89 1014.3
20260508065103 58 279 2.0 4.0 0.00 0.00 0.00 89 1014.3
20260508065001 58 279 2.0 4.0 0.00 0.00 0.00 89 1014.3
20260508064903 58 279 3.0 4.0 0.00 0.00 0.00 89 1014.3
20260508064802 58 279 2.0 5.0 0.00 0.00 0.00 89 1014.2
20260508064700 58 279 1.0 5.0 0.00 0.00 0.00 89 1014.3
20260508064602 58 279 2.0 5.0 0.00 0.00 0.00 89 1014.2
20260508064400 57 279 1.0 5.0 0.00 0.00 0.00 89 1014.2
20260508064301 57 279 2.0 5.0 0.00 0.00 0.00 89 1014.2
20260508064203 57 279 1.0 5.0 0.00 0.00 0.00 89 1014.2
20260508064100 57 279 1.0 5.0 0.00 0.00 0.00 90 1014.2
20260508064003 57 279 3.0 5.0 0.00 0.00 0.00 90 1014.1
20260508063800 57 286 4.0 5.0 0.00 0.00 0.00 90 1014.1
20260508063704 57 309 2.0 5.0 0.00 0.00 0.00 90 1014.2
20260508063603 57 309 3.0 5.0 0.00 0.00 0.00 90 1014.2
20260508063401 57 309 1.0 5.0 0.00 0.00 0.00 90 1014.1
20260508063304 57 309 2.0 5.0 0.00 0.00 0.00 90 1014.1
20260508063201 57 296 3.0 5.0 0.00 0.00 0.00 90 1014.2
20260508063103 57 293 3.0 5.0 0.00 0.00 0.00 90 1014.2
20260508063008 57 290 3.0 5.0 0.00 0.00 0.00 90 1014.2
20260508062900 57 287 2.0 5.0 0.00 0.00 0.00 90 1014.1
20260508062802 57 257 2.0 5.0 0.00 0.00 0.00 90 1014.2
20260508062703 57 287 4.0 5.0 0.00 0.00 0.00 90 1014.2
20260508062600 57 279 4.0 6.0 0.00 0.00 0.00 90 1014.1
20260508062502 57 271 2.0 6.0 0.00 0.00 0.00 90 1014.1
20260508062403 57 261 4.0 6.0 0.00 0.00 0.00 90 1014.1
20260508062300 57 261 2.0 6.0 0.00 0.00 0.00 90 1014.1
20260508062202 57 261 1.0 6.0 0.00 0.00 0.00 90 1014.0
20260508062103 57 261 3.0 6.0 0.00 0.00 0.00 90 1014.0
20260508062001 57 281 2.0 6.0 0.00 0.00 0.00 90 1014.0
20260508061902 57 269 3.0 6.0 0.00 0.00 0.00 90 1014.0
20260508061804 57 269 3.0 6.0 0.00 0.00 0.00 91 1014.0
20260508061701 57 276 4.0 6.0 0.00 0.00 0.00 91 1014.0
20260508061600 57 278 3.0 6.0 0.00 0.00 0.00 91 1014.0
20260508061300 57 281 3.0 5.0 0.00 0.00 0.00 92 1013.9
20260508061100 57 301 2.0 5.0 0.00 0.00 0.00 92 1013.8
20260508061000 57 306 4.0 5.0 0.00 0.00 0.00 92 1013.9
20260508060800 57 325 3.0 5.0 0.00 0.00 0.00 93 1013.8
20260508060702 57 315 5.0 5.0 0.00 0.00 0.00 93 1013.8
20260508060603 57 277 2.0 3.0 0.00 0.00 0.00 93 1013.8
20260508060500 57 277 2.0 3.0 0.00 0.00 0.00 93 1013.8
20260508060400 57 277 2.0 3.0 0.00 0.00 0.00 93 1013.8
20260508060303 57 277 2.0 3.0 0.00 0.00 0.00 93 1013.8
20260508060201 56 277 3.0 3.0 0.00 0.00 0.00 93 1013.8
20260508060114 56 277 2.0 2.0 0.00 0.00 0.00 93 1013.8
20260508060006 56 277 1.0 2.0 0.00 0.00 0.00 94 1013.8
20260508055859 56 277 0.0 4.0 0.00 0.00 0.00 94 1013.7
20260508055800 56 277 0.0 4.0 0.00 0.00 0.00 94 1013.7
20260508055703 56 277 2.0 4.0 0.00 0.00 0.00 94 1013.7
20260508055403 56 277 1.0 4.0 0.00 0.00 0.00 94 1013.7
20260508055301 56 277 2.0 4.0 0.00 0.00 0.00 94 1013.6
20260508055200 56 277 2.0 4.0 0.00 0.00 0.00 94 1013.7
20260508055102 56 277 1.0 4.0 0.00 0.00 0.00 94 1013.6
20260508055001 56 277 2.0 4.0 0.00 0.00 0.00 94 1013.6
20260508054859 56 277 3.0 4.0 0.00 0.00 0.00 95 1013.6
20260508054701 56 325 3.0 4.0 0.00 0.00 0.00 95 1013.6
20260508054505 56 325 1.0 4.0 0.00 0.00 0.00 95 1013.5
20260508054259 55 329 2.0 4.0 0.00 0.00 0.00 95 1013.6
20260508054204 55 221 3.0 4.0 0.00 0.00 0.00 95 1013.6
20260508054100 55 221 2.0 4.0 0.00 0.00 0.00 95 1013.6
20260508054010 55 221 2.0 4.0 0.00 0.00 0.00 95 1013.6
20260508053902 55 221 1.0 4.0 0.00 0.00 0.00 95 1013.6
20260508053802 55 221 2.0 4.0 0.00 0.00 0.00 95 1013.6
20260508053700 55 221 2.0 4.0 0.00 0.00 0.00 95 1013.6
20260508053602 55 221 2.0 4.0 0.00 0.00 0.00 95 1013.6
20260508053502 55 221 4.0 4.0 0.00 0.00 0.00 95 1013.6
20260508053402 55 221 0.0 2.0 0.00 0.00 0.00 95 1013.6
20260508053305 55 221 0.0 2.0 0.00 0.00 0.00 95 1013.6
20260508053201 55 221 1.0 2.0 0.00 0.00 0.00 95 1013.6
20260508053005 55 220 0.0 4.0 0.00 0.00 0.00 96 1013.6
20260508052900 55 220 0.0 4.0 0.00 0.00 0.00 96 1013.6
20260508052802 55 220 1.0 4.0 0.00 0.00 0.00 96 1013.6
20260508052706 55 220 1.0 4.0 0.00 0.00 0.00 96 1013.6
20260508052602 54 220 0.0 4.0 0.00 0.00 0.00 96 1013.6
20260508052503 54 220 0.0 4.0 0.00 0.00 0.00 96 1013.5
20260508052403 54 220 1.0 4.0 0.00 0.00 0.00 96 1013.6
20260508052300 54 220 1.0 4.0 0.00 0.00 0.00 96 1013.5
20260508052200 54 220 1.0 5.0 0.00 0.00 0.00 96 1013.5
20260508052104 54 220 4.0 5.0 0.00 0.00 0.00 96 1013.5
20260508052001 54 220 2.0 6.0 0.00 0.00 0.00 96 1013.5
20260508051902 54 220 3.0 6.0 0.00 0.00 0.00 96 1013.4
20260508051803 54 231 3.0 6.0 0.00 0.00 0.00 96 1013.5
20260508051700 54 237 2.0 6.0 0.00 0.00 0.00 96 1013.5
20260508051601 54 221 2.0 6.0 0.00 0.00 0.00 96 1013.4
20260508051507 54 221 2.0 6.0 0.00 0.00 0.00 96 1013.4
20260508051400 54 254 1.0 6.0 0.00 0.00 0.00 100 1013.4
20260508051258 54 232 4.0 6.0 0.00 0.00 0.00 96 1013.3
20260508051203 54 261 5.0 6.0 0.00 0.00 0.00 96 1013.3
20260508051100 54 240 4.0 6.0 0.00 0.00 0.00 96 1013.3
20260508051001 54 236 6.0 6.0 0.00 0.00 0.00 96 1013.4
20260508050903 54 232 5.0 5.0 0.00 0.00 0.00 96 1013.4
20260508050700 53 250 5.0 5.0 0.00 0.00 0.00 96 1013.4
20260508050603 53 250 3.0 3.0 0.00 0.00 0.00 96 1013.5
20260508050501 53 239 3.0 3.0 0.00 0.00 0.00 96 1013.4
20260508050400 53 290 1.0 3.0 0.00 0.00 0.00 96 1013.5
20260508050301 53 290 2.0 3.0 0.00 0.00 0.00 96 1013.4
20260508050222 53 290 2.0 3.0 0.00 0.00 0.00 96 1013.4
20260508050100 53 311 3.0 3.0 0.00 0.00 0.00 96 1013.4
20260508050006 53 311 2.0 3.0 0.00 0.00 0.00 96 1013.4
20260508045702 53 311 1.0 3.0 0.00 0.00 0.00 96 1013.4
20260508045600 53 311 0.0 3.0 0.00 0.00 0.00 96 1013.4
20260508045501 53 311 1.0 3.0 0.00 0.00 0.00 96 1013.4
20260508045406 53 311 2.0 3.0 0.00 0.00 0.00 96 1013.4
20260508045200 53 311 1.0 3.0 0.00 0.00 0.00 96 1013.4
20260508045103 53 311 0.0 3.0 0.00 0.00 0.00 96 1013.4
20260508045000 53 311 3.0 3.0 0.00 0.00 0.00 96 1013.3
20260508044900 53 311 3.0 3.0 0.00 0.00 0.00 96 1013.3
20260508044803 53 311 1.0 3.0 0.00 0.00 0.00 96 1013.3
20260508044701 53 311 0.0 4.0 0.00 0.00 0.00 96 1013.3
20260508044601 53 311 2.0 4.0 0.00 0.00 0.00 96 1013.3
20260508044400 52 320 2.0 4.0 0.00 0.00 0.00 96 1013.2
20260508044001 52 26 2.0 5.0 0.00 0.00 0.00 96 1013.3
20260508043906 52 26 1.0 6.0 0.00 0.00 0.00 96 1013.3
20260508043817 52 26 3.0 6.0 0.00 0.00 0.00 96 1013.3
20260508043700 52 26 3.0 6.0 0.00 0.00 0.00 96 1013.3
20260508043606 52 26 3.0 6.0 0.00 0.00 0.00 96 1013.3
20260508043505 52 26 2.0 6.0 0.00 0.00 0.00 96 1013.3
20260508043303 52 26 3.0 6.0 0.00 0.00 0.00 96 1013.2
20260508043203 52 26 2.0 6.0 0.00 0.00 0.00 96 1013.2
20260508043100 52 22 3.0 6.0 0.00 0.00 0.00 96 1013.2
20260508043005 52 29 3.0 6.0 0.00 0.00 0.00 96 1013.2
20260508042902 52 31 5.0 5.0 0.00 0.00 0.00 96 1013.2
20260508042814 52 229 2.0 3.0 0.00 0.00 0.00 96 1013.2
20260508042705 52 229 1.0 2.0 0.00 0.00 0.00 96 1013.1
20260508042601 52 229 0.0 2.0 0.00 0.00 0.00 96 1013.1
20260508042500 52 229 1.0 2.0 0.00 0.00 0.00 96 1013.1
20260508042402 52 229 0.0 2.0 0.00 0.00 0.00 96 1013.2
20260508042306 52 229 0.0 2.0 0.00 0.00 0.00 96 1013.1
20260508042200 52 229 0.0 2.0 0.00 0.00 0.00 96 1013.1
20260508042104 52 229 0.0 2.0 0.00 0.00 0.00 96 1013.1
20260508041900 52 229 1.0 3.0 0.00 0.00 0.00 96 1013.1
20260508041802 52 229 1.0 3.0 0.00 0.00 0.00 96 1013.1
20260508041702 52 229 0.0 5.0 0.00 0.00 0.00 96 1013.1
20260508041600 52 229 1.0 5.0 0.00 0.00 0.00 96 1013.1
20260508041502 52 229 0.0 6.0 0.00 0.00 0.00 96 1013.1
20260508041402 52 229 1.0 6.0 0.00 0.00 0.00 96 1013.1
20260508041300 52 229 1.0 7.0 0.00 0.00 0.00 96 1013.1
20260508041204 52 229 0.0 7.0 0.00 0.00 0.00 96 1013.1
20260508041103 52 229 0.0 7.0 0.00 0.00 0.00 96 1013.1
20260508041001 52 229 3.0 7.0 0.00 0.00 0.00 96 1013.1
20260508040904 52 229 2.0 7.0 0.00 0.00 0.00 96 1013.1
20260508040802 52 229 2.0 7.0 0.00 0.00 0.00 96 1013.0
20260508040716 51 229 5.0 7.0 0.00 0.00 0.00 96 1013.0
20260508040503 51 225 5.0 7.0 0.00 0.00 0.00 96 1013.0
20260508040204 51 228 4.0 5.0 0.00 0.00 0.00 96 1013.0
20260508040113 51 232 2.0 5.0 0.00 0.00 0.00 96 1013.0
20260508040008 51 232 3.0 5.0 0.00 0.00 0.00 96 1013.0
20260508035800 51 232 2.0 5.0 0.00 0.00 0.00 96 1013.0
20260508035603 51 232 2.0 6.0 0.00 0.00 0.00 96 1013.0
20260508035503 51 232 2.0 6.0 0.00 0.00 0.00 96 1013.0
20260508035403 51 232 3.0 6.0 0.00 0.00 0.00 96 1012.9
20260508035306 51 232 2.0 6.0 0.00 0.00 0.00 96 1012.9
20260508035207 50 232 2.0 6.0 0.00 0.00 0.00 96 1013.0
20260508035002 50 232 2.0 6.0 0.00 0.00 0.00 96 1012.9
20260508034900 50 232 2.0 6.0 0.00 0.00 0.00 96 1012.9
20260508034802 50 237 5.0 6.0 0.00 0.00 0.00 96 1012.9
20260508034702 50 230 4.0 6.0 0.00 0.00 0.00 96 1012.9
20260508034502 50 224 5.0 7.0 0.00 0.00 0.00 96 1013.0
20260508034402 50 213 3.0 7.0 0.00 0.00 0.00 96 1013.0
20260508034259 50 201 3.0 7.0 0.00 0.00 0.00 96 1013.0
20260508034204 50 201 3.0 7.0 0.00 0.00 0.00 96 1013.0
20260508034001 50 201 5.0 7.0 0.00 0.00 0.00 96 1012.9
20260508033603 49 212 4.0 7.0 0.00 0.00 0.00 96 1012.8
20260508033459 49 217 6.0 7.0 0.00 0.00 0.00 96 1012.8
20260508033200 49 213 3.0 6.0 0.00 0.00 0.00 96 1012.9
20260508033102 49 213 5.0 6.0 0.00 0.00 0.00 96 1012.8
20260508033005 49 213 4.0 5.0 0.00 0.00 0.00 96 1012.8
20260508032901 49 213 3.0 5.0 0.00 0.00 0.00 96 1012.9
20260508032802 49 213 4.0 5.0 0.00 0.00 0.00 96 1013.0
20260508032702 49 213 4.0 5.0 0.00 0.00 0.00 96 1012.9
20260508032558 49 213 4.0 5.0 0.00 0.00 0.00 96 1013.0
20260508032402 49 213 3.0 4.0 0.00 0.00 0.00 96 1012.8
20260508032259 49 213 3.0 5.0 0.00 0.00 0.00 96 1012.8
20260508032204 49 232 2.0 5.0 0.00 0.00 0.00 96 1012.8
20260508032103 49 232 3.0 5.0 0.00 0.00 0.00 96 1012.8
20260508032002 49 279 2.0 5.0 0.00 0.00 0.00 96 1012.8
20260508031900 49 279 2.0 5.0 0.00 0.00 0.00 96 1012.9
20260508031804 49 279 2.0 5.0 0.00 0.00 0.00 96 1012.9
20260508031600 49 279 2.0 5.0 0.00 0.00 0.00 96 1013.0
20260508031400 48 279 3.0 5.0 0.00 0.00 0.00 96 1013.0
20260508031300 48 281 4.0 4.0 0.00 0.00 0.00 96 1013.0
20260508031000 48 290 3.0 4.0 0.00 0.00 0.00 96 1012.9
20260508030903 48 283 3.0 4.0 0.00 0.00 0.00 96 1013.0
20260508030804 48 284 3.0 4.0 0.00 0.00 0.00 96 1012.9
20260508030500 47 290 1.0 2.0 0.00 0.00 0.00 95 1013.0
20260508030400 47 290 2.0 2.0 0.00 0.00 0.00 95 1013.0
20260508030059 48 290 1.0 3.0 0.00 0.00 0.00 95 1013.0
20260508030006 48 290 0.0 3.0 0.00 0.00 0.00 95 1013.0
20260508025800 48 290 0.0 3.0 0.00 0.00 0.00 96 1013.0
20260508025619 48 290 0.0 3.0 0.00 0.00 0.00 96 1013.0
20260508025500 48 290 1.0 3.0 0.00 0.00 0.00 96 1012.9
20260508025403 48 290 1.0 3.0 0.00 0.00 0.00 96 1012.9
20260508025300 48 290 2.0 3.0 0.00 0.00 0.00 96 1012.9
20260508025159 47 296 3.0 3.0 0.00 0.00 0.00 96 1012.9
20260508025102 47 190 2.0 3.0 0.00 0.00 0.00 96 1012.9
20260508025001 47 190 2.0 2.0 0.00 0.00 0.00 96 1012.9
20260508024701 47 190 1.0 2.0 0.00 0.00 0.00 95 1013.0
20260508024600 47 190 0.0 2.0 0.00 0.00 0.00 96 1013.0
20260508024510 47 190 0.0 2.0 0.00 0.00 0.00 96 1013.0
20260508024301 47 190 1.0 2.0 0.00 0.00 0.00 95 1013.0
20260508024203 47 190 2.0 2.0 0.00 0.00 0.00 95 1012.9
20260508024103 47 190 2.0 2.0 0.00 0.00 0.00 95 1012.9
20260508024004 47 190 1.0 2.0 0.00 0.00 0.00 95 1012.9
20260508023903 47 190 2.0 2.0 0.00 0.00 0.00 95 1012.9
20260508023758 47 190 1.0 2.0 0.00 0.00 0.00 95 1012.8
20260508023700 47 190 1.0 2.0 0.00 0.00 0.00 95 1012.8
20260508023500 47 190 0.0 3.0 0.00 0.00 0.00 95 1012.8
20260508023302 47 190 2.0 4.0 0.00 0.00 0.00 95 1012.8
20260508023202 47 190 2.0 4.0 0.00 0.00 0.00 95 1012.9
20260508023100 47 190 1.0 4.0 0.00 0.00 0.00 95 1012.9
20260508023007 47 190 0.0 4.0 0.00 0.00 0.00 95 1012.9
20260508022900 47 190 0.0 4.0 0.00 0.00 0.00 95 1012.9
20260508022758 47 190 0.0 4.0 0.00 0.00 0.00 95 1012.8
20260508022704 47 190 0.0 4.0 0.00 0.00 0.00 95 1012.8
20260508022600 47 190 2.0 4.0 0.00 0.00 0.00 95 1012.8
20260508022500 47 190 2.0 4.0 0.00 0.00 0.00 95 1012.8
20260508022404 47 190 3.0 4.0 0.00 0.00 0.00 95 1012.8
20260508022300 47 190 2.0 4.0 0.00 0.00 0.00 95 1012.7
20260508022200 47 190 4.0 4.0 0.00 0.00 0.00 95 1012.7
20260508022102 47 190 4.0 4.0 0.00 0.00 0.00 95 1012.7
20260508022001 47 190 4.0 4.0 0.00 0.00 0.00 95 1012.7
20260508021900 47 190 3.0 3.0 0.00 0.00 0.00 95 1012.7
20260508021806 47 190 1.0 2.0 0.00 0.00 0.00 95 1012.7
20260508021700 47 190 1.0 2.0 0.00 0.00 0.00 95 1012.7
20260508021601 48 190 2.0 2.0 0.00 0.00 0.00 95 1012.7
20260508021503 48 190 2.0 2.0 0.00 0.00 0.00 95 1012.7
20260508021359 48 190 0.0 2.0 0.00 0.00 0.00 95 1012.7
20260508021300 48 190 0.0 2.0 0.00 0.00 0.00 95 1012.7
20260508021204 48 190 0.0 3.0 0.00 0.00 0.00 95 1012.7
20260508021100 48 190 0.0 3.0 0.00 0.00 0.00 95 1012.7
20260508021000 48 190 0.0 3.0 0.00 0.00 0.00 95 1012.6
20260508020903 48 190 0.0 3.0 0.00 0.00 0.00 95 1012.7
20260508020759 48 190 0.0 3.0 0.00 0.00 0.00 95 1012.6
20260508020501 48 190 0.0 3.0 0.00 0.00 0.00 95 1012.7
20260508020400 48 190 1.0 3.0 0.00 0.00 0.00 95 1012.7
20260508020302 48 190 2.0 3.0 0.00 0.00 0.00 95 1012.7
20260508020159 48 190 2.0 2.0 0.00 0.00 0.00 95 1012.7
20260508020114 48 190 1.0 2.0 0.00 0.00 0.00 95 1012.7
20260508020005 48 190 1.0 2.0 0.00 0.00 0.00 95 1012.7
20260508015702 48 190 0.0 3.0 0.00 0.00 0.00 95 1012.6
20260508015600 48 190 0.0 3.0 0.00 0.00 0.00 95 1012.6
20260508015500 48 190 0.0 3.0 0.00 0.00 0.00 95 1012.6
20260508015259 48 190 0.0 3.0 0.00 0.00 0.00 95 1012.7
20260508015159 48 190 1.0 3.0 0.00 0.00 0.00 95 1012.7
20260508015103 48 190 1.0 3.0 0.00 0.00 0.00 95 1012.7
20260508015000 48 190 2.0 3.0 0.00 0.00 0.00 96 1012.7
20260508014900 48 190 2.0 3.0 0.00 0.00 0.00 96 1012.7
20260508014659 48 190 2.0 3.0 0.00 0.00 0.00 95 1012.7
20260508014602 48 190 2.0 3.0 0.00 0.00 0.00 95 1012.7
20260508014508 48 190 2.0 3.0 0.00 0.00 0.00 95 1012.7
20260508014418 48 190 3.0 3.0 0.00 0.00 0.00 95 1012.7
20260508014100 48 190 2.0 3.0 0.00 0.00 0.00 95 1012.6
20260508014001 48 190 1.0 3.0 0.00 0.00 0.00 95 1012.6
20260508013902 48 190 1.0 3.0 0.00 0.00 0.00 95 1012.6
20260508013801 48 190 2.0 3.0 0.00 0.00 0.00 95 1012.6
20260508013701 48 190 1.0 3.0 0.00 0.00 0.00 95 1012.6
20260508013605 48 190 1.0 3.0 0.00 0.00 0.00 95 1012.6
20260508013400 48 190 2.0 3.0 0.00 0.00 0.00 95 1012.6
20260508013303 48 190 2.0 3.0 0.00 0.00 0.00 95 1012.6
20260508013159 48 190 1.0 3.0 0.00 0.00 0.00 95 1012.6
20260508013059 48 190 2.0 2.0 0.00 0.00 0.00 95 1012.6
20260508012901 48 190 0.0 2.0 0.00 0.00 0.00 95 1012.6
20260508012800 48 190 1.0 2.0 0.00 0.00 0.00 95 1012.6
20260508012702 48 190 1.0 2.0 0.00 0.00 0.00 95 1012.6
20260508012600 48 190 1.0 1.0 0.00 0.00 0.00 95 1012.7
20260508012500 48 190 0.0 0.0 0.00 0.00 0.00 95 1012.7
20260508012401 48 190 0.0 0.0 0.00 0.00 0.00 95 1012.7
20260508012103 48 190 0.0 1.0 0.00 0.00 0.00 95 1012.7
20260508012000 48 190 0.0 2.0 0.00 0.00 0.00 95 1012.7
20260508011803 48 190 0.0 2.0 0.00 0.00 0.00 95 1012.7
20260508011700 48 190 0.0 2.0 0.00 0.00 0.00 95 1012.6
20260508011600 48 190 0.0 2.0 0.00 0.00 0.00 95 1012.6
20260508011503 48 190 0.0 2.0 0.00 0.00 0.00 95 1012.6
20260508011407 48 190 0.0 2.0 0.00 0.00 0.00 95 1012.6
20260508011300 48 190 0.0 2.0 0.00 0.00 0.00 95 1012.6
20260508011203 48 190 0.0 2.0 0.00 0.00 0.00 95 1012.6
20260508011000 48 190 2.0 2.0 0.00 0.00 0.00 95 1012.6
20260508010903 48 190 1.0 2.0 0.00 0.00 0.00 95 1012.6
20260508010759 48 190 0.0 2.0 0.00 0.00 0.00 95 1012.5
20260508010700 48 190 1.0 2.0 0.00 0.00 0.00 95 1012.6
20260508010500 48 190 1.0 2.0 0.00 0.00 0.00 95 1012.6
20260508010400 48 190 1.0 2.0 0.00 0.00 0.00 95 1012.6
20260508010201 48 190 1.0 2.0 0.00 0.00 0.00 95 1012.7
20260508010059 48 190 1.0 1.0 0.00 0.00 0.00 95 1012.6
20260508010005 48 190 1.0 1.0 0.00 0.00 0.00 95 1012.7
20260508005900 48 190 1.0 1.0 0.00 0.00 0.00 95 1012.7
20260508005758 48 190 1.0 1.0 0.00 0.00 0.00 95 1012.7
20260508005559 48 190 0.0 1.0 0.00 0.00 0.00 95 1012.7
20260508005500 48 190 0.0 2.0 0.00 0.00 0.00 95 1012.7
20260508005402 48 190 0.0 2.0 0.00 0.00 0.00 94 1012.7
20260508005300 48 190 0.0 2.0 0.00 0.00 0.00 95 1012.7
20260508005159 48 190 0.0 2.0 0.00 0.00 0.00 95 1012.7
20260508005102 48 190 0.0 2.0 0.00 0.00 0.00 95 1012.7
20260508005000 48 190 0.0 2.0 0.00 0.00 0.00 95 1012.7
20260508004802 48 190 1.0 2.0 0.00 0.00 0.00 95 1012.7
20260508004700 48 190 1.0 2.0 0.00 0.00 0.00 94 1012.6
20260508004600 48 190 1.0 2.0 0.00 0.00 0.00 95 1012.7
20260508004504 48 190 2.0 2.0 0.00 0.00 0.00 94 1012.7
20260508004359 48 190 2.0 3.0 0.00 0.00 0.00 94 1012.7
20260508004259 48 190 2.0 3.0 0.00 0.00 0.00 94 1012.7
20260508004203 48 190 1.0 3.0 0.00 0.00 0.00 94 1012.7
20260508004000 48 190 0.0 3.0 0.00 0.00 0.00 94 1012.8
20260508003901 48 190 1.0 3.0 0.00 0.00 0.00 94 1012.8
20260508003800 48 190 1.0 3.0 0.00 0.00 0.00 94 1012.8
20260508003700 48 190 2.0 3.0 0.00 0.00 0.00 94 1012.8
20260508003604 48 190 2.0 3.0 0.00 0.00 0.00 94 1012.8
20260508003501 48 190 2.0 3.0 0.00 0.00 0.00 94 1012.8
20260508003400 48 190 2.0 3.0 0.00 0.00 0.00 94 1012.8
20260508003303 48 190 2.0 3.0 0.00 0.00 0.00 94 1012.8
20260508003203 48 190 2.0 3.0 0.00 0.00 0.00 94 1012.8
20260508003110 48 190 1.0 3.0 0.00 0.00 0.00 94 1012.8
20260508003005 48 190 0.0 3.0 0.00 0.00 0.00 94 1012.8
20260508002903 48 190 0.0 3.0 0.00 0.00 0.00 94 1012.9
20260508002800 48 190 0.0 3.0 0.00 0.00 0.00 94 1012.9
20260508002702 48 190 0.0 3.0 0.00 0.00 0.00 94 1012.9
20260508002600 48 190 0.0 3.0 0.00 0.00 0.00 94 1012.9
20260508002403 48 190 1.0 3.0 0.00 0.00 0.00 94 1012.8
20260508002200 49 190 2.0 2.0 0.00 0.00 0.00 94 1012.8
20260508002103 49 190 1.0 2.0 0.00 0.00 0.00 94 1012.9
20260508002000 49 190 1.0 2.0 0.00 0.00 0.00 94 1012.8
20260508001900 49 190 2.0 2.0 0.00 0.00 0.00 94 1012.9
20260508001803 49 190 2.0 2.0 0.00 0.00 0.00 94 1012.9
20260508001659 49 190 2.0 2.0 0.00 0.00 0.00 94 1012.9
20260508001559 49 190 0.0 2.0 0.00 0.00 0.00 94 1013.0
20260508001503 49 190 0.0 2.0 0.00 0.00 0.00 94 1013.0
20260508001359 49 190 0.0 2.0 0.00 0.00 0.00 94 1013.0
20260508001203 49 190 0.0 2.0 0.00 0.00 0.00 94 1013.0
20260508001100 49 190 0.0 2.0 0.00 0.00 0.00 94 1013.0
20260508000800 49 190 1.0 2.0 0.00 0.00 0.00 94 1013.0
20260508000700 49 190 0.0 0.0 0.00 0.00 0.00 94 1013.0
20260508000602 49 190 0.0 0.0 0.00 0.00 0.00 94 1013.0
20260508000500 49 190 0.0 1.0 0.00 0.00 0.00 94 1013.0
20260508000400 49 190 0.0 1.0 0.00 0.00 0.00 94 1013.0
20260508000006 49 190 0.0 3.0 0.00 0.00 0.00 94 1013.0
20260507235900 49 190 0.0 3.0 0.00 0.00 0.00 94 1013.0
20260507235800 49 190 0.0 3.0 0.00 0.00 0.00 94 1013.0
20260507235706 49 190 0.0 3.0 0.00 0.00 0.00 94 1013.0
20260507235459 49 190 1.0 3.0 0.00 0.00 0.00 94 1013.0
20260507235403 49 190 1.0 3.0 0.00 0.00 0.00 94 1013.0
20260507235300 49 190 2.0 3.0 0.00 0.00 0.00 94 1013.0
20260507235200 49 190 2.0 3.0 0.00 0.00 0.00 94 1013.0
20260507234900 49 190 2.0 3.0 0.00 0.00 0.00 94 1013.0
20260507234803 49 190 2.0 2.0 0.00 0.00 0.00 94 1013.0
20260507234600 49 190 1.0 3.0 0.00 0.00 0.00 94 1013.1
20260507234503 50 190 0.0 3.0 0.00 0.00 0.00 94 1013.1
20260507234359 50 190 0.0 3.0 0.00 0.00 0.00 94 1013.0
20260507234203 50 190 2.0 3.0 0.00 0.00 0.00 94 1013.1
20260507234100 50 190 2.0 3.0 0.00 0.00 0.00 94 1013.1
20260507234001 50 190 2.0 3.0 0.00 0.00 0.00 94 1013.1
20260507233905 50 190 2.0 3.0 0.00 0.00 0.00 95 1013.1
20260507233801 50 190 1.0 3.0 0.00 0.00 0.00 95 1013.1
20260507233659 50 190 2.0 3.0 0.00 0.00 0.00 95 1013.1
20260507233602 50 190 2.0 3.0 0.00 0.00 0.00 95 1013.1
20260507233501 50 190 1.0 3.0 0.00 0.00 0.00 95 1013.1
20260507233359 50 190 3.0 4.0 0.00 0.00 0.00 95 1013.1
20260507233301 49 190 2.0 4.0 0.00 0.00 0.00 95 1013.1
20260507233159 49 190 1.0 4.0 0.00 0.00 0.00 94 1013.1
20260507233100 49 190 1.0 4.0 0.00 0.00 0.00 94 1013.1
20260507233005 49 190 2.0 4.0 0.00 0.00 0.00 94 1013.1
20260507232859 49 190 2.0 4.0 0.00 0.00 0.00 94 1013.1
20260507232703 49 190 2.0 4.0 0.00 0.00 0.00 94 1013.1
20260507232600 49 190 2.0 4.0 0.00 0.00 0.00 94 1013.2
20260507232500 49 190 2.0 4.0 0.00 0.00 0.00 94 1013.2
20260507232201 49 190 3.0 4.0 0.00 0.00 0.00 94 1013.1
20260507232105 49 190 3.0 3.0 0.00 0.00 0.00 94 1013.1
20260507232008 49 190 3.0 3.0 0.00 0.00 0.00 94 1013.2
20260507231859 49 190 2.0 3.0 0.00 0.00 0.00 94 1013.2
20260507231804 49 190 2.0 3.0 0.00 0.00 0.00 94 1013.2
20260507231700 49 190 2.0 3.0 0.00 0.00 0.00 94 1013.2
20260507231600 49 190 2.0 3.0 0.00 0.00 0.00 94 1013.1
20260507231503 49 190 2.0 3.0 0.00 0.00 0.00 93 1013.2
20260507231401 49 190 2.0 3.0 0.00 0.00 0.00 93 1013.2
20260507231259 49 190 2.0 3.0 0.00 0.00 0.00 93 1013.2
20260507231205 49 190 3.0 3.0 0.00 0.00 0.00 93 1013.2
20260507231101 49 190 3.0 3.0 0.00 0.00 0.00 93 1013.2
20260507231000 49 190 2.0 4.0 0.00 0.00 0.00 94 1013.2
20260507230902 49 190 2.0 4.0 0.00 0.00 0.00 93 1013.2
20260507230759 49 190 2.0 4.0 0.00 0.00 0.00 94 1013.2
20260507230605 49 190 2.0 4.0 0.00 0.00 0.00 94 1013.2
20260507230500 49 190 2.0 4.0 0.00 0.00 0.00 93 1013.2
20260507230404 49 190 2.0 4.0 0.00 0.00 0.00 93 1013.2
20260507230100 50 190 2.0 4.0 0.00 0.00 0.00 93 1013.2
20260507230006 50 190 3.0 4.0 0.00 0.00 0.00 93 1013.2
20260507225801 50 190 2.0 3.0 0.00 0.00 0.00 93 1013.2
20260507225558 50 190 1.0 1.0 0.00 0.00 0.00 93 1013.2
20260507225500 50 190 0.0 1.0 0.00 0.00 0.00 93 1013.2
20260507225401 50 190 0.0 1.0 0.00 0.00 0.00 93 1013.2
20260507225200 50 190 0.0 1.0 0.00 0.00 0.00 93 1013.2
20260507225104 50 190 1.0 1.0 0.00 0.00 0.00 93 1013.2
20260507225001 50 190 1.0 1.0 0.00 0.00 0.00 93 1013.1
20260507224859 50 190 0.0 2.0 0.00 0.00 0.00 93 1013.1
20260507224802 50 190 0.0 2.0 0.00 0.00 0.00 93 1013.1
20260507224700 50 190 0.0 2.0 0.00 0.00 0.00 93 1013.2
20260507224600 50 190 0.0 3.0 0.00 0.00 0.00 93 1013.1
20260507224504 50 190 0.0 3.0 0.00 0.00 0.00 93 1013.1
20260507224259 50 190 0.0 3.0 0.00 0.00 0.00 93 1013.1
20260507224204 50 190 1.0 4.0 0.00 0.00 0.00 94 1013.1
20260507224100 50 190 0.0 4.0 0.00 0.00 0.00 94 1013.1
20260507224011 50 190 1.0 4.0 0.00 0.00 0.00 94 1013.1
20260507223904 50 190 1.0 4.0 0.00 0.00 0.00 93 1013.1
20260507223702 50 190 2.0 4.0 0.00 0.00 0.00 93 1013.1
20260507223604 50 190 2.0 4.0 0.00 0.00 0.00 93 1013.1
20260507223504 50 190 2.0 4.0 0.00 0.00 0.00 93 1013.1
20260507223400 50 190 3.0 4.0 0.00 0.00 0.00 93 1013.1
20260507223302 50 190 3.0 4.0 0.00 0.00 0.00 93 1013.1
20260507223200 50 190 3.0 4.0 0.00 0.00 0.00 93 1013.1
20260507223059 50 190 3.0 3.0 0.00 0.00 0.00 93 1013.1
20260507222900 50 190 1.0 3.0 0.00 0.00 0.00 93 1013.1
20260507222759 50 190 2.0 3.0 0.00 0.00 0.00 93 1013.1
20260507222702 50 190 1.0 2.0 0.00 0.00 0.00 93 1013.0
20260507222601 50 190 0.0 2.0 0.00 0.00 0.00 93 1013.0
20260507222500 50 190 1.0 2.0 0.00 0.00 0.00 93 1013.0
20260507222408 50 190 0.0 2.0 0.00 0.00 0.00 93 1013.0
20260507222300 50 190 1.0 2.0 0.00 0.00 0.00 93 1013.0
20260507222200 51 190 1.0 1.0 0.00 0.00 0.00 93 1012.9
20260507222058 51 190 1.0 1.0 0.00 0.00 0.00 93 1012.9
20260507222023 51 190 0.0 0.0 0.00 0.00 0.00 93 1012.9
20260507221900 51 190 0.0 1.0 0.00 0.00 0.00 93 1012.9
20260507221800 51 190 0.0 1.0 0.00 0.00 0.00 93 1012.9
20260507221559 51 190 0.0 1.0 0.00 0.00 0.00 93 1012.9
20260507221402 51 190 0.0 1.0 0.00 0.00 0.00 93 1012.9
20260507221259 51 190 0.0 1.0 0.00 0.00 0.00 93 1012.9
20260507221201 51 190 0.0 1.0 0.00 0.00 0.00 92 1012.9
20260507221102 51 190 0.0 1.0 0.00 0.00 0.00 92 1012.9
20260507221002 51 190 0.0 1.0 0.00 0.00 0.00 92 1012.9
20260507220801 51 190 0.0 1.0 0.00 0.00 0.00 93 1012.9
20260507220659 51 190 0.0 1.0 0.00 0.00 0.00 93 1012.8
20260507220559 51 190 0.0 1.0 0.00 0.00 0.00 93 1012.8
20260507220502 51 190 0.0 1.0 0.00 0.00 0.00 93 1012.8
20260507220359 51 190 0.0 1.0 0.00 0.00 0.00 93 1012.8
20260507220301 51 190 1.0 1.0 0.00 0.00 0.00 93 1012.8
20260507220202 51 190 1.0 1.0 0.00 0.00 0.00 93 1012.8
20260507220116 51 190 0.0 1.0 0.00 0.00 0.00 93 1012.8
20260507220009 51 190 1.0 1.0 0.00 0.00 0.00 93 1012.7
20260507215904 51 190 0.0 0.0 0.00 0.01 0.00 93 1012.8
20260507215801 51 190 0.0 1.0 0.00 0.01 0.00 93 1012.7
20260507215700 51 190 0.0 1.0 0.00 0.01 0.00 93 1012.7
20260507215606 51 190 0.0 1.0 0.00 0.01 0.00 93 1012.7
20260507215502 51 190 0.0 1.0 0.00 0.01 0.00 92 1012.7
20260507215306 51 190 0.0 2.0 0.00 0.01 0.00 92 1012.8
20260507215201 51 190 0.0 2.0 0.00 0.01 0.00 92 1012.7
20260507215004 51 190 0.0 2.0 0.00 0.01 0.00 92 1012.7
20260507214901 51 190 0.0 3.0 0.00 0.01 0.00 92 1012.8
20260507214802 51 190 1.0 3.0 0.00 0.01 0.00 92 1012.7
20260507214703 51 190 1.0 3.0 0.00 0.01 0.00 92 1012.8
20260507214601 51 190 0.0 3.0 0.00 0.01 0.00 92 1012.7
20260507214502 51 190 0.0 3.0 0.00 0.01 0.00 92 1012.7
20260507214408 51 190 1.0 3.0 0.00 0.01 0.00 92 1012.7
20260507214300 52 190 1.0 3.0 0.00 0.01 0.00 92 1012.6
20260507214201 52 190 2.0 3.0 0.00 0.01 0.00 92 1012.6
20260507214103 52 190 1.0 3.0 0.00 0.01 0.00 92 1012.7
20260507213901 52 190 2.0 3.0 0.00 0.01 0.00 92 1012.7
20260507213803 52 190 2.0 3.0 0.00 0.01 0.00 92 1012.7
20260507213700 52 190 3.0 3.0 0.00 0.01 0.00 92 1012.7
20260507213504 52 190 2.0 2.0 0.00 0.01 0.00 92 1012.7
20260507213401 52 190 1.0 2.0 0.00 0.01 0.00 92 1012.7
20260507213300 52 190 1.0 2.0 0.00 0.01 0.00 92 1012.7
20260507213101 52 190 1.0 2.0 0.00 0.01 0.00 92 1012.7
20260507213001 52 190 1.0 3.0 0.00 0.01 0.00 92 1012.6
20260507212907 52 190 1.0 3.0 0.00 0.01 0.00 92 1012.6
20260507212701 52 190 0.0 3.0 0.00 0.01 0.00 92 1012.7
20260507212603 52 190 1.0 3.0 0.00 0.01 0.00 92 1012.7
20260507212503 52 190 2.0 3.0 0.00 0.01 0.00 92 1012.7
20260507212401 52 190 1.0 3.0 0.00 0.01 0.00 92 1012.6
20260507212307 52 190 2.0 3.0 0.00 0.01 0.00 92 1012.6
20260507212201 52 190 1.0 3.0 0.00 0.01 0.00 92 1012.7
20260507212059 52 190 1.0 3.0 0.00 0.01 0.00 92 1012.6
20260507212004 52 190 3.0 3.0 0.00 0.01 0.00 92 1012.7
20260507211801 52 35 1.0 2.0 0.00 0.01 0.00 91 1012.7
20260507211601 53 35 1.0 2.0 0.00 0.01 0.00 91 1012.6
20260507211501 53 35 0.0 2.0 0.00 0.01 0.00 91 1012.6
20260507211404 53 35 0.0 2.0 0.00 0.01 0.00 91 1012.6
20260507211301 53 35 0.0 2.0 0.00 0.01 0.00 91 1012.6
20260507211201 53 35 0.0 2.0 0.00 0.01 0.00 91 1012.6
20260507211102 53 35 1.0 2.0 0.00 0.01 0.00 91 1012.6
20260507210900 53 35 1.0 2.0 0.00 0.01 0.00 91 1012.6
20260507210813 53 35 0.0 2.0 0.00 0.01 0.00 91 1012.6
20260507210701 53 35 1.0 2.0 0.00 0.01 0.00 91 1012.5
20260507210600 53 35 2.0 3.0 0.00 0.01 0.00 91 1012.5
20260507210401 53 35 1.0 3.0 0.00 0.01 0.00 91 1012.5
20260507210005 53 35 1.0 4.0 0.00 0.01 0.00 91 1012.5
20260507205904 53 35 1.0 4.0 0.00 0.01 0.00 92 1012.5
20260507205801 53 35 2.0 4.0 0.00 0.01 0.00 92 1012.6
20260507205700 53 35 2.0 4.0 0.00 0.01 0.00 92 1012.6
20260507205603 53 35 2.0 4.0 0.00 0.01 0.00 92 1012.6
20260507205501 53 35 2.0 4.0 0.00 0.01 0.00 92 1012.6
20260507205400 53 35 3.0 4.0 0.00 0.01 0.00 91 1012.6
20260507205201 53 35 4.0 4.0 0.00 0.01 0.00 91 1012.7
20260507205102 53 217 0.0 4.0 0.00 0.01 0.00 91 1012.7
20260507205004 53 217 1.0 4.0 0.00 0.01 0.00 91 1012.7
20260507204901 53 217 3.0 4.0 0.00 0.01 0.00 91 1012.7
20260507204704 53 217 3.0 4.0 0.00 0.01 0.00 90 1012.7
20260507204501 53 217 4.0 4.0 0.00 0.01 0.00 90 1012.6
20260507204404 53 217 3.0 4.0 0.00 0.01 0.00 90 1012.6
20260507204303 53 217 3.0 3.0 0.00 0.01 0.00 90 1012.6
20260507204200 53 217 3.0 3.0 0.00 0.01 0.00 90 1012.6
20260507204001 53 217 1.0 3.0 0.00 0.01 0.00 90 1012.6
20260507203901 53 217 1.0 3.0 0.00 0.01 0.00 90 1012.6
20260507203803 53 217 0.0 3.0 0.00 0.01 0.00 90 1012.7
20260507203702 53 217 0.0 3.0 0.00 0.01 0.00 90 1012.6
20260507203601 53 217 0.0 3.0 0.00 0.01 0.00 90 1012.6
20260507203504 54 217 0.0 3.0 0.00 0.01 0.00 90 1012.6
20260507203400 54 217 1.0 3.0 0.00 0.01 0.00 90 1012.7
20260507203203 54 217 1.0 3.0 0.00 0.01 0.00 90 1012.7
20260507203100 54 217 1.0 3.0 0.00 0.01 0.00 90 1012.7
20260507203001 54 217 2.0 3.0 0.00 0.01 0.00 89 1012.7
20260507202905 54 217 3.0 3.0 0.00 0.01 0.00 89 1012.7
20260507202801 54 98 3.0 3.0 0.00 0.01 0.00 89 1012.7
20260507202700 54 98 2.0 3.0 0.00 0.01 0.00 89 1012.7
20260507202603 54 98 3.0 3.0 0.00 0.01 0.00 89 1012.7
20260507202501 54 98 2.0 3.0 0.00 0.01 0.00 92 1012.7
20260507202401 54 98 1.0 3.0 0.00 0.01 0.00 89 1012.8
20260507202306 54 98 2.0 3.0 0.00 0.01 0.00 89 1012.8
20260507202201 54 98 2.0 3.0 0.00 0.01 0.00 89 1012.8
20260507202100 54 98 2.0 3.0 0.00 0.01 0.00 89 1012.8
20260507202005 54 98 1.0 3.0 0.00 0.01 0.00 89 1012.8
20260507201900 54 98 1.0 3.0 0.00 0.01 0.00 89 1012.7
20260507201800 54 98 2.0 3.0 0.00 0.01 0.00 89 1012.8
20260507201704 54 98 2.0 2.0 0.00 0.01 0.00 89 1012.7
20260507201601 54 98 1.0 2.0 0.00 0.01 0.00 89 1012.7
20260507201501 54 98 1.0 1.0 0.00 0.01 0.00 89 1012.7
20260507201300 55 98 0.0 1.0 0.00 0.01 0.00 89 1012.7
20260507201201 55 98 0.0 2.0 0.00 0.01 0.00 89 1012.7
20260507201102 55 98 0.0 2.0 0.00 0.01 0.00 89 1012.8
20260507200900 55 98 0.0 2.0 0.00 0.01 0.00 88 1012.8
20260507200805 55 98 0.0 3.0 0.00 0.01 0.00 88 1012.8
20260507200701 55 98 0.0 3.0 0.00 0.01 0.00 88 1012.8
20260507200504 55 98 0.0 3.0 0.00 0.01 0.00 88 1012.8
20260507200401 55 98 1.0 3.0 0.00 0.01 0.00 88 1012.8
20260507200300 55 98 0.0 3.0 0.00 0.01 0.00 88 1012.8
20260507200203 55 98 1.0 3.0 0.00 0.01 0.00 88 1012.8
20260507200117 55 98 1.0 3.0 0.00 0.01 0.00 87 1012.8
20260507200007 55 98 1.0 3.0 0.00 0.01 0.00 87 1012.8
20260507195905 55 98 2.0 3.0 0.00 0.01 0.00 87 1012.7
20260507195800 55 98 2.0 3.0 0.00 0.01 0.00 87 1012.8
20260507195709 55 98 1.0 3.0 0.00 0.01 0.00 87 1012.8
20260507195607 55 98 1.0 3.0 0.00 0.01 0.00 87 1012.8
20260507195502 55 98 1.0 3.0 0.00 0.01 0.00 87 1012.7
20260507195401 55 98 1.0 3.0 0.00 0.01 0.00 87 1012.7
20260507195200 55 98 1.0 3.0 0.00 0.01 0.00 87 1012.7
20260507195101 55 98 2.0 3.0 0.00 0.01 0.00 87 1012.7
20260507195007 55 98 2.0 3.0 0.00 0.01 0.00 87 1012.7
20260507194901 56 98 0.0 2.0 0.00 0.01 0.00 87 1012.7
20260507194803 56 98 1.0 2.0 0.00 0.01 0.00 87 1012.7
20260507194704 56 98 2.0 3.0 0.00 0.01 0.00 87 1012.7
20260507194605 56 98 1.0 3.0 0.00 0.01 0.00 87 1012.6
20260507194520 56 98 1.0 3.0 0.00 0.01 0.00 87 1012.6
20260507194307 56 98 1.0 3.0 0.00 0.01 0.00 86 1012.7
20260507194202 56 98 1.0 3.0 0.00 0.01 0.00 86 1012.7
20260507194103 56 98 1.0 3.0 0.00 0.01 0.00 86 1012.7
20260507194002 56 98 0.0 3.0 0.00 0.01 0.00 86 1012.6
20260507193901 56 98 1.0 3.0 0.00 0.01 0.00 86 1012.6
20260507193805 56 98 2.0 3.0 0.00 0.01 0.00 85 1012.6
20260507193700 56 98 1.0 2.0 0.00 0.01 0.00 85 1012.6
20260507193602 56 98 1.0 2.0 0.00 0.01 0.00 85 1012.6
20260507193504 56 98 1.0 2.0 0.00 0.01 0.00 85 1012.6
20260507193400 56 98 1.0 2.0 0.00 0.01 0.00 85 1012.6
20260507193301 57 98 1.0 2.0 0.00 0.01 0.00 84 1012.6
20260507193206 57 98 1.0 2.0 0.00 0.01 0.00 84 1012.6
20260507193101 57 98 0.0 2.0 0.00 0.01 0.00 84 1012.6
20260507193002 57 98 1.0 2.0 0.00 0.01 0.00 84 1012.6
20260507192903 57 98 2.0 2.0 0.00 0.01 0.00 84 1012.6
20260507192801 57 98 2.0 2.0 0.00 0.01 0.00 84 1012.5
20260507192701 57 98 2.0 2.0 0.00 0.01 0.00 84 1012.5
20260507192603 57 98 2.0 2.0 0.00 0.01 0.00 83 1012.5
20260507192501 57 98 2.0 2.0 0.00 0.01 0.00 83 1012.6
20260507192401 57 98 2.0 2.0 0.00 0.01 0.00 83 1012.5
20260507192306 58 98 1.0 1.0 0.00 0.01 0.00 83 1012.5
20260507192059 58 98 0.0 2.0 0.00 0.01 0.00 82 1012.6
20260507191900 58 98 1.0 2.0 0.00 0.01 0.00 82 1012.6
20260507191802 58 98 1.0 2.0 0.00 0.01 0.00 82 1012.5
20260507191601 58 98 1.0 2.0 0.00 0.01 0.00 81 1012.5
20260507191503 59 98 1.0 2.0 0.00 0.01 0.00 81 1012.5
20260507191406 59 98 1.0 2.0 0.00 0.01 0.00 80 1012.5
20260507191300 59 98 0.0 2.0 0.00 0.01 0.00 80 1012.4
20260507191200 59 98 1.0 2.0 0.00 0.01 0.00 80 1012.3
20260507191103 59 98 1.0 2.0 0.00 0.01 0.00 80 1012.3
20260507191001 59 98 1.0 2.0 0.00 0.01 0.00 79 1012.3
20260507190859 60 98 1.0 2.0 0.00 0.01 0.00 79 1012.3
20260507190804 60 98 1.0 3.0 0.00 0.01 0.00 79 1012.3
20260507190601 60 98 1.0 4.0 0.00 0.01 0.00 79 1012.3
20260507190506 60 98 1.0 4.0 0.00 0.01 0.00 79 1012.3
20260507190319 60 98 1.0 5.0 0.00 0.01 0.00 78 1012.3
20260507190210 60 98 2.0 5.0 0.00 0.01 0.00 78 1012.3
20260507190100 60 98 2.0 5.0 0.00 0.01 0.00 78 1012.3
20260507190006 60 98 1.0 5.0 0.00 0.01 0.00 78 1012.3
20260507185903 60 98 2.0 7.0 0.00 0.01 0.00 78 1012.2
20260507185801 60 98 3.0 7.0 0.00 0.01 0.00 77 1012.2
20260507185700 60 106 2.0 7.0 0.00 0.01 0.00 77 1012.2
20260507185501 61 105 3.0 7.0 0.00 0.01 0.00 77 1012.1
20260507185402 61 108 4.0 7.0 0.00 0.01 0.00 77 1012.2
20260507185305 61 116 5.0 7.0 0.00 0.01 0.00 77 1012.1
20260507185205 61 117 4.0 8.0 0.00 0.01 0.00 77 1012.1
20260507185100 61 104 3.0 8.0 0.00 0.01 0.00 77 1012.1
20260507185005 61 100 6.0 8.0 0.00 0.01 0.00 76 1012.1
20260507184859 61 94 7.0 8.0 0.00 0.01 0.00 76 1012.2
20260507184800 61 85 6.0 8.0 0.00 0.01 0.00 76 1012.2
20260507184610 61 72 4.0 8.0 0.00 0.01 0.00 75 1012.2
20260507184501 61 76 5.0 9.0 0.00 0.01 0.00 75 1012.3
20260507184406 61 71 4.0 9.0 0.00 0.01 0.00 76 1012.3
20260507184300 61 78 4.0 9.0 0.00 0.01 0.00 75 1012.2
20260507184201 61 75 5.0 9.0 0.00 0.01 0.00 75 1012.2
20260507184103 61 85 8.0 9.0 0.00 0.01 0.00 74 1012.2
20260507184001 61 92 6.0 9.0 0.00 0.01 0.00 74 1012.2
20260507183901 61 90 3.0 9.0 0.00 0.01 0.00 74 1012.2
20260507183803 62 96 7.0 9.0 0.00 0.01 0.00 74 1012.2
20260507183659 62 90 7.0 9.0 0.00 0.01 0.00 73 1012.2
20260507183559 62 84 6.0 9.0 0.00 0.01 0.00 74 1012.2
20260507183505 62 97 5.0 9.0 0.00 0.01 0.00 73 1012.2
20260507183401 62 67 7.0 9.0 0.00 0.01 0.00 72 1012.2
20260507183301 62 77 7.0 8.0 0.00 0.01 0.00 72 1012.2
20260507183204 62 77 5.0 9.0 0.00 0.01 0.00 72 1012.2
20260507183101 62 77 4.0 9.0 0.00 0.01 0.00 72 1012.2
20260507183001 62 61 3.0 9.0 0.00 0.01 0.00 71 1012.1
20260507182908 62 57 3.0 9.0 0.00 0.01 0.00 71 1012.1
20260507182800 62 80 7.0 9.0 0.00 0.01 0.00 71 1012.1
20260507182701 62 84 7.0 9.0 0.00 0.01 0.00 71 1012.1
20260507182603 63 86 5.0 11.0 0.00 0.01 0.00 71 1012.1
20260507182501 63 96 5.0 11.0 0.00 0.01 0.00 71 1012.0
20260507182401 63 89 7.0 11.0 0.00 0.01 0.00 71 1012.1
20260507182306 63 74 4.0 11.0 0.00 0.01 0.00 70 1012.1
20260507182201 63 95 8.0 11.0 0.00 0.01 0.00 70 1012.0
20260507182004 63 82 7.0 11.0 0.00 0.01 0.00 70 1012.1
20260507181800 63 65 7.0 11.0 0.00 0.01 0.00 69 1012.1
20260507181704 64 75 7.0 11.0 0.00 0.01 0.00 69 1012.1
20260507181559 64 72 10.0 10.0 0.00 0.01 0.00 69 1012.0
20260507181501 64 67 5.0 9.0 0.00 0.01 0.00 69 1012.0
20260507181403 64 74 7.0 9.0 0.00 0.01 0.00 68 1012.0
20260507181301 64 71 5.0 9.0 0.00 0.01 0.00 68 1012.0
20260507181200 64 76 4.0 9.0 0.00 0.01 0.00 68 1012.0
20260507181103 64 76 5.0 9.0 0.00 0.01 0.00 68 1011.9
20260507181002 64 87 6.0 9.0 0.00 0.01 0.00 68 1011.9
20260507180900 65 81 6.0 9.0 0.00 0.01 0.00 68 1011.9
20260507180700 65 96 6.0 9.0 0.00 0.01 0.00 68 1011.9
20260507180600 65 88 8.0 9.0 0.00 0.01 0.00 68 1011.8
20260507180400 65 68 8.0 9.0 0.00 0.01 0.00 67 1011.8
20260507180300 65 71 5.0 8.0 0.00 0.01 0.00 67 1011.8
20260507180204 65 69 3.0 8.0 0.00 0.01 0.00 67 1011.7
20260507180130 65 69 4.0 10.0 0.00 0.01 0.00 67 1011.7
20260507180005 65 59 4.0 10.0 0.00 0.01 0.00 66 1011.7
20260507175909 65 53 3.0 10.0 0.00 0.02 0.00 66 1011.8
20260507175803 66 50 5.0 10.0 0.00 0.02 0.00 66 1011.7
20260507175611 66 48 5.0 10.0 0.00 0.02 0.00 66 1011.7
20260507175500 66 74 7.0 10.0 0.00 0.02 0.00 65 1011.7
20260507175159 66 76 7.0 10.0 0.00 0.02 0.00 65 1011.7
20260507175100 66 63 9.0 10.0 0.00 0.02 0.00 65 1011.7
20260507175005 66 46 5.0 9.0 0.00 0.02 0.00 65 1011.7
20260507174801 66 80 7.0 10.0 0.00 0.02 0.00 65 1011.7
20260507174559 67 68 4.0 11.0 0.00 0.02 0.00 64 1011.6
20260507174403 67 63 7.0 11.0 0.00 0.02 0.00 64 1011.5
20260507174301 67 65 7.0 11.0 0.00 0.02 0.00 64 1011.6
20260507174200 67 73 7.0 11.0 0.00 0.02 0.00 63 1011.6
20260507174104 67 63 7.0 11.0 0.00 0.02 0.00 63 1011.6
20260507173900 67 67 7.0 11.0 0.00 0.02 0.00 63 1011.5
20260507173804 67 76 8.0 11.0 0.00 0.02 0.00 63 1011.5
20260507173602 67 77 8.0 11.0 0.00 0.02 0.00 62 1011.5
20260507173505 68 67 9.0 11.0 0.00 0.02 0.00 61 1011.5
20260507173401 68 69 7.0 11.0 0.00 0.02 0.00 61 1011.5
20260507173203 68 70 9.0 11.0 0.00 0.02 0.00 62 1011.5
20260507173100 68 78 7.0 11.0 0.00 0.02 0.00 61 1011.5
20260507172903 68 74 8.0 11.0 0.00 0.02 0.00 61 1011.5
20260507172800 68 59 7.0 11.0 0.00 0.02 0.00 61 1011.4
20260507172400 68 67 9.0 11.0 0.00 0.02 0.00 60 1011.5
20260507172201 68 47 6.0 11.0 0.00 0.02 0.00 60 1011.6
20260507172100 68 64 5.0 11.0 0.00 0.02 0.00 60 1011.6
20260507171903 68 70 8.0 11.0 0.00 0.02 0.00 60 1011.5
20260507171703 69 52 5.0 11.0 0.00 0.02 0.00 59 1011.5
20260507171600 69 82 10.0 11.0 0.00 0.02 0.00 59 1011.5
20260507171403 69 88 9.0 13.0 0.00 0.02 0.00 59 1011.5
20260507171301 69 76 9.0 13.0 0.00 0.02 0.00 58 1011.5
20260507171108 69 86 8.0 13.0 0.00 0.02 0.00 58 1011.5
20260507170600 69 88 9.0 13.0 0.00 0.02 0.00 58 1011.5
20260507170504 69 75 10.0 13.0 0.00 0.02 0.00 58 1011.5
20260507170359 69 76 13.0 14.0 0.00 0.02 0.00 58 1011.5
20260507170300 69 71 9.0 14.0 0.00 0.02 0.00 58 1011.5
20260507170203 69 74 8.0 14.0 0.00 0.02 0.00 59 1011.5
20260507170101 69 68 10.0 14.0 0.00 0.02 0.00 58 1011.6
20260507170009 69 61 8.0 14.0 0.00 0.02 0.00 57 1011.6
20260507165904 70 74 10.0 14.0 0.00 0.02 0.00 57 1011.5
20260507165605 70 75 10.0 14.0 0.00 0.02 0.00 58 1011.5
20260507165501 70 76 10.0 14.0 0.00 0.02 0.00 58 1011.5
20260507165306 70 71 11.0 12.0 0.00 0.02 0.00 58 1011.4
20260507165200 70 61 9.0 12.0 0.00 0.02 0.00 57 1011.5
20260507165100 70 49 6.0 12.0 0.00 0.02 0.00 57 1011.5
20260507165005 70 63 10.0 13.0 0.00 0.02 0.00 57 1011.5
20260507164704 70 65 8.0 13.0 0.00 0.02 0.00 57 1011.4
20260507164559 70 60 10.0 13.0 0.00 0.02 0.00 56 1011.4
20260507164300 71 69 9.0 13.0 0.00 0.02 0.00 55 1011.4
20260507164201 71 53 5.0 13.0 0.00 0.02 0.00 56 1011.3
20260507164103 71 71 8.0 13.0 0.00 0.02 0.00 56 1011.3
20260507164004 71 70 10.0 13.0 0.00 0.02 0.00 54 1011.3
20260507163700 71 77 12.0 13.0 0.00 0.02 0.00 56 1011.2
20260507163503 71 67 8.0 13.0 0.00 0.02 0.00 55 1011.2
20260507163400 71 81 7.0 13.0 0.00 0.02 0.00 55 1011.2
20260507163301 71 56 8.0 13.0 0.00 0.02 0.00 54 1011.2
20260507163203 71 87 8.0 13.0 0.00 0.02 0.00 55 1011.2
20260507163100 71 87 10.0 12.0 0.00 0.02 0.00 54 1011.2
20260507162902 71 72 8.0 12.0 0.00 0.02 0.00 54 1011.2
20260507162800 72 57 10.0 12.0 0.00 0.02 0.00 54 1011.2
20260507162701 72 61 9.0 12.0 0.00 0.02 0.00 54 1011.2
20260507162501 72 65 8.0 12.0 0.00 0.02 0.00 54 1011.2
20260507162400 72 85 9.0 12.0 0.00 0.02 0.00 54 1011.2
20260507162306 72 120 5.0 11.0 0.00 0.02 0.00 53 1011.2
20260507162201 72 100 10.0 12.0 0.00 0.02 0.00 54 1011.2
20260507162100 72 104 9.0 12.0 0.00 0.02 0.00 55 1011.2
20260507162006 72 80 5.0 12.0 0.00 0.02 0.00 54 1011.2
20260507161801 72 86 6.0 12.0 0.00 0.02 0.00 54 1011.2
20260507161703 72 116 5.0 12.0 0.00 0.02 0.00 54 1011.2
20260507161600 72 116 8.0 12.0 0.00 0.02 0.00 53 1011.2
20260507161501 72 119 8.0 12.0 0.00 0.02 0.00 52 1011.2
20260507161403 72 98 10.0 12.0 0.00 0.02 0.00 51 1011.2
20260507161300 72 112 11.0 12.0 0.00 0.02 0.00 52 1011.2
20260507161201 72 108 10.0 11.0 0.00 0.02 0.00 52 1011.2
20260507161103 72 121 7.0 11.0 0.00 0.02 0.00 51 1011.2
20260507161001 72 113 7.0 11.0 0.00 0.02 0.00 52 1011.2
20260507160900 72 105 3.0 11.0 0.00 0.02 0.00 53 1011.1
20260507160600 72 80 8.0 11.0 0.00 0.02 0.00 56 1011.2
20260507160503 72 88 10.0 11.0 0.00 0.02 0.00 55 1011.2
20260507160359 72 74 5.0 11.0 0.00 0.02 0.00 55 1011.2
20260507160203 72 130 5.0 11.0 0.00 0.02 0.00 54 1011.2
20260507160120 72 92 7.0 11.0 0.00 0.02 0.00 54 1011.2
20260507160004 72 90 7.0 11.0 0.00 0.02 0.00 54 1011.2
20260507155904 72 87 3.0 10.0 0.00 0.02 0.00 53 1011.2
20260507155800 72 115 7.0 11.0 0.00 0.02 0.00 54 1011.2
20260507155603 72 125 4.0 13.0 0.00 0.02 0.00 54 1011.2
20260507155501 72 131 8.0 13.0 0.00 0.02 0.00 56 1011.1
20260507155403 72 76 5.0 13.0 0.00 0.02 0.00 55 1011.1
20260507155306 72 72 7.0 13.0 0.00 0.02 0.00 54 1011.1
20260507155201 72 107 9.0 13.0 0.00 0.02 0.00 53 1011.1
20260507155100 72 136 8.0 13.0 0.00 0.02 0.00 53 1011.1
20260507155006 72 132 8.0 13.0 0.00 0.02 0.00 53 1011.1
20260507154900 72 101 7.0 13.0 0.00 0.02 0.00 53 1011.1
20260507154801 72 121 10.0 13.0 0.00 0.02 0.00 53 1011.2
20260507154704 72 108 10.0 12.0 0.00 0.02 0.00 52 1011.1
20260507154602 72 107 10.0 12.0 0.00 0.02 0.00 52 1011.2
20260507154502 72 89 7.0 12.0 0.00 0.02 0.00 53 1011.2
20260507154407 72 126 6.0 12.0 0.00 0.02 0.00 51 1011.2
20260507154315 72 103 9.0 12.0 0.00 0.02 0.00 53 1011.2
20260507154200 72 82 6.0 12.0 0.00 0.02 0.00 56 1011.2
20260507154103 72 84 8.0 12.0 0.00 0.02 0.00 54 1011.2
20260507154005 72 88 11.0 12.0 0.00 0.02 0.00 56 1011.2
20260507153900 72 74 8.0 14.0 0.00 0.02 0.00 54 1011.2
20260507153803 72 63 5.0 14.0 0.00 0.02 0.00 54 1011.2
20260507153702 72 78 8.0 14.0 0.00 0.02 0.00 54 1011.3
20260507153600 72 76 10.0 14.0 0.00 0.02 0.00 54 1011.2
20260507153504 72 72 11.0 14.0 0.00 0.02 0.00 53 1011.2
20260507153401 72 59 8.0 14.0 0.00 0.02 0.00 56 1011.2
20260507153303 72 71 12.0 14.0 0.00 0.02 0.00 55 1011.2
20260507153203 72 78 8.0 14.0 0.00 0.02 0.00 55 1011.3
20260507153103 72 139 5.0 14.0 0.00 0.02 0.00 54 1011.2
20260507153002 72 88 10.0 14.0 0.00 0.02 0.00 56 1011.2
20260507152903 72 93 13.0 13.0 0.00 0.02 0.00 57 1011.2
20260507152803 72 78 7.0 13.0 0.00 0.02 0.00 57 1011.2
20260507152701 72 94 8.0 13.0 0.00 0.02 0.00 57 1011.2
20260507152603 71 91 10.0 13.0 0.00 0.02 0.00 58 1011.3
20260507152501 71 93 9.0 13.0 0.00 0.02 0.00 57 1011.3
20260507152400 71 85 5.0 14.0 0.00 0.02 0.00 57 1011.3
20260507152306 71 84 8.0 14.0 0.00 0.02 0.00 56 1011.3
20260507152202 71 137 9.0 14.0 0.00 0.02 0.00 57 1011.3
20260507152100 71 109 4.0 14.0 0.00 0.02 0.00 56 1011.3
20260507152006 71 126 9.0 14.0 0.00 0.02 0.00 55 1011.3
20260507151903 71 128 8.0 12.0 0.00 0.02 0.00 55 1011.3
20260507151501 71 141 6.0 12.0 0.00 0.02 0.00 56 1011.4
20260507151408 71 140 8.0 12.0 0.00 0.02 0.00 57 1011.4
20260507151302 71 144 10.0 12.0 0.00 0.02 0.00 59 1011.3
20260507151204 71 109 5.0 13.0 0.00 0.02 0.00 58 1011.3
20260507151103 71 94 10.0 13.0 0.00 0.02 0.00 55 1011.3
20260507151005 71 130 8.0 14.0 0.00 0.02 0.00 56 1011.3
20260507150900 71 110 8.0 16.0 0.00 0.02 0.00 57 1011.4
20260507150803 71 123 10.0 16.0 0.00 0.02 0.00 58 1011.4
20260507150701 70 96 8.0 16.0 0.00 0.02 0.00 57 1011.4
20260507150506 70 78 8.0 16.0 0.00 0.02 0.00 58 1011.4
20260507150406 70 78 5.0 16.0 0.00 0.02 0.00 60 1011.4
20260507150313 69 101 13.0 16.0 0.00 0.02 0.00 59 1011.4
20260507150207 69 60 9.0 16.0 0.00 0.02 0.00 59 1011.4
20260507150104 69 46 6.0 16.0 0.00 0.02 0.00 60 1011.4
20260507150006 69 65 13.0 16.0 0.00 0.02 0.00 59 1011.5
20260507145700 69 84 11.0 15.0 0.00 0.06 0.00 59 1011.5
20260507145603 69 62 14.0 15.0 0.00 0.06 0.00 60 1011.5
20260507145502 69 91 8.0 14.0 0.00 0.06 0.00 60 1011.5
20260507145400 69 80 7.0 16.0 0.00 0.06 0.00 61 1011.5
20260507145306 69 90 8.0 16.0 0.00 0.06 0.00 61 1011.5
20260507145202 69 96 8.0 16.0 0.00 0.06 0.00 59 1011.5
20260507145101 69 78 9.0 16.0 0.00 0.06 0.00 60 1011.5
20260507145008 69 62 10.0 16.0 0.00 0.06 0.00 60 1011.5
20260507144903 69 52 8.0 16.0 0.00 0.06 0.00 59 1011.5
20260507144801 69 79 9.0 16.0 0.00 0.06 0.00 59 1011.5
20260507144703 69 71 8.0 16.0 0.00 0.06 0.00 58 1011.5
20260507144500 68 73 13.0 16.0 0.00 0.06 0.00 60 1011.5
20260507144403 68 66 11.0 16.0 0.00 0.06 0.00 60 1011.5
20260507144303 68 80 11.0 16.0 0.00 0.06 0.00 60 1011.5
20260507144004 68 86 16.0 16.0 0.00 0.06 0.00 61 1011.5
20260507143803 69 51 10.0 13.0 0.00 0.06 0.00 61 1011.5
20260507143702 69 61 7.0 14.0 0.00 0.06 0.00 61 1011.5
20260507143600 68 69 8.0 16.0 0.00 0.06 0.00 60 1011.5
20260507143505 69 72 12.0 16.0 0.00 0.06 0.00 60 1011.5
20260507143402 69 84 9.0 16.0 0.00 0.06 0.00 60 1011.4
20260507143300 69 85 11.0 16.0 0.00 0.06 0.00 60 1011.4
20260507143219 69 74 8.0 16.0 0.00 0.06 0.00 60 1011.4
20260507143102 69 63 13.0 16.0 0.00 0.06 0.00 60 1011.4
20260507143002 69 21 6.0 16.0 0.00 0.06 0.00 59 1011.4
20260507142903 69 36 9.0 16.0 0.00 0.06 0.00 59 1011.4
20260507142803 69 59 8.0 16.0 0.00 0.06 0.00 59 1011.5
20260507142701 69 71 14.0 16.0 0.00 0.06 0.00 60 1011.4
20260507142602 69 59 9.0 15.0 0.00 0.06 0.00 60 1011.4
20260507142400 69 49 7.0 15.0 0.00 0.06 0.00 60 1011.4
20260507142203 69 47 8.0 15.0 0.00 0.06 0.00 58 1011.4
20260507142100 69 78 8.0 15.0 0.00 0.06 0.00 60 1011.4
20260507142004 69 38 10.0 15.0 0.00 0.06 0.00 59 1011.4
20260507141903 69 43 7.0 15.0 0.00 0.06 0.00 58 1011.4
20260507141801 69 71 14.0 15.0 0.00 0.06 0.00 59 1011.4
20260507141703 69 70 11.0 14.0 0.00 0.06 0.00 58 1011.4
20260507141500 70 51 11.0 14.0 0.00 0.06 0.00 56 1011.4
20260507141403 70 38 7.0 14.0 0.00 0.06 0.00 56 1011.4
20260507141302 70 38 10.0 14.0 0.00 0.06 0.00 56 1011.4
20260507141102 70 45 6.0 14.0 0.00 0.06 0.00 58 1011.4
20260507141007 70 42 9.0 14.0 0.00 0.06 0.00 59 1011.4
20260507140901 70 60 11.0 14.0 0.00 0.06 0.00 59 1011.4
20260507140804 70 33 6.0 14.0 0.00 0.06 0.00 59 1011.4
20260507140703 69 53 9.0 14.0 0.00 0.06 0.00 57 1011.4
20260507140600 70 46 8.0 14.0 0.00 0.06 0.00 58 1011.4
20260507140403 70 42 11.0 14.0 0.00 0.06 0.00 59 1011.4
20260507140259 70 80 14.0 14.0 0.00 0.06 0.00 58 1011.5
20260507140117 70 70 11.0 14.0 0.00 0.06 0.00 58 1011.4
20260507140009 70 39 8.0 14.0 0.00 0.06 0.00 58 1011.4
20260507135800 70 53 9.0 14.0 0.00 0.06 0.00 57 1011.4
20260507135703 70 57 5.0 16.0 0.00 0.06 0.00 58 1011.4
20260507135603 71 18 7.0 16.0 0.00 0.06 0.00 58 1011.4
20260507135500 71 46 5.0 16.0 0.00 0.06 0.00 57 1011.4
20260507135402 71 42 7.0 16.0 0.00 0.06 0.00 55 1011.5
20260507135306 71 45 10.0 16.0 0.00 0.06 0.00 55 1011.5
20260507135159 72 55 13.0 16.0 0.00 0.06 0.00 56 1011.5
20260507135103 72 85 15.0 16.0 0.00 0.06 0.00 56 1011.5
20260507135006 72 46 12.0 16.0 0.00 0.06 0.00 54 1011.5
20260507134901 72 89 13.0 16.0 0.00 0.06 0.00 55 1011.4
20260507134703 73 74 11.0 16.0 0.00 0.06 0.00 54 1011.5
20260507134404 74 69 11.0 13.0 0.00 0.06 0.00 48 1011.5
20260507134300 74 74 8.0 10.0 0.00 0.06 0.00 47 1011.4
20260507134103 74 138 2.0 8.0 0.00 0.06 0.00 43 1011.5
20260507134017 74 181 5.0 8.0 0.00 0.06 0.00 44 1011.5
20260507133803 74 130 3.0 11.0 0.00 0.06 0.00 49 1011.5
20260507133603 74 140 3.0 11.0 0.00 0.06 0.00 48 1011.5
20260507133400 74 140 1.0 11.0 0.00 0.06 0.00 47 1011.5
20260507133203 74 158 4.0 11.0 0.00 0.06 0.00 46 1011.4
20260507133101 74 194 5.0 11.0 0.00 0.06 0.00 46 1011.4
20260507133006 75 171 3.0 11.0 0.00 0.06 0.00 47 1011.4
20260507132801 75 171 4.0 7.0 0.00 0.06 0.00 45 1011.4
20260507132702 75 161 2.0 7.0 0.00 0.06 0.00 45 1011.4
20260507132603 75 131 5.0 7.0 0.00 0.06 0.00 53 1011.4
20260507132404 74 79 6.0 8.0 0.00 0.06 0.00 45 1011.4
20260507132306 74 79 1.0 8.0 0.00 0.06 0.00 45 1011.4
20260507132200 74 69 2.0 8.0 0.00 0.06 0.00 45 1011.4
20260507132107 74 49 0.0 8.0 0.00 0.06 0.00 44 1011.4
20260507132009 74 49 1.0 8.0 0.00 0.06 0.00 51 1011.5
20260507131900 74 67 5.0 8.0 0.00 0.06 0.00 47 1011.5
20260507131802 74 82 6.0 9.0 0.00 0.06 0.00 45 1011.5
20260507131703 74 105 3.0 9.0 0.00 0.06 0.00 44 1011.5
20260507131600 74 225 4.0 9.0 0.00 0.06 0.00 47 1011.5
20260507131503 74 191 3.0 9.0 0.00 0.06 0.00 45 1011.5
20260507131403 74 130 4.0 9.0 0.00 0.06 0.00 48 1011.5
20260507131301 74 140 5.0 9.0 0.00 0.06 0.00 44 1011.5
20260507131202 74 144 4.0 9.0 0.00 0.06 0.00 47 1011.5
20260507131016 74 86 2.0 9.0 0.00 0.06 0.00 46 1011.5
20260507130903 74 60 4.0 9.0 0.00 0.06 0.00 50 1011.5
20260507130803 74 61 5.0 9.0 0.00 0.06 0.00 49 1011.5
20260507130700 74 83 7.0 7.0 0.00 0.06 0.00 49 1011.5
20260507130603 74 121 3.0 7.0 0.00 0.06 0.00 46 1011.5
20260507130400 73 165 2.0 5.0 0.00 0.06 0.00 47 1011.5
20260507130306 73 174 0.0 8.0 0.00 0.06 0.00 46 1011.5
20260507130202 73 174 1.0 8.0 0.00 0.06 0.00 46 1011.5
20260507130101 73 174 1.0 8.0 0.00 0.06 0.00 47 1011.6
20260507130007 73 167 1.0 8.0 0.00 0.06 0.00 48 1011.6
20260507125903 73 180 2.0 8.0 0.00 0.06 0.00 45 1011.6
20260507125802 73 180 2.0 8.0 0.00 0.06 0.00 45 1011.5
20260507125703 73 135 2.0 8.0 0.00 0.06 0.00 45 1011.5
20260507125501 74 128 1.0 8.0 0.00 0.06 0.00 48 1011.5
20260507125404 74 133 5.0 10.0 0.00 0.06 0.00 49 1011.5
20260507125307 74 134 6.0 11.0 0.00 0.06 0.00 46 1011.5
20260507125201 74 81 1.0 11.0 0.00 0.06 0.00 47 1011.5
20260507125103 74 133 2.0 11.0 0.00 0.06 0.00 43 1011.5
20260507125006 74 133 2.0 11.0 0.00 0.06 0.00 43 1011.5
20260507124900 74 133 2.0 11.0 0.00 0.06 0.00 46 1011.5
20260507124803 75 107 2.0 11.0 0.00 0.06 0.00 48 1011.5
20260507124703 75 99 3.0 11.0 0.00 0.06 0.00 48 1011.5
20260507124602 75 82 6.0 11.0 0.00 0.06 0.00 49 1011.5
20260507124505 75 61 7.0 11.0 0.00 0.06 0.00 49 1011.5
20260507124402 75 56 8.0 11.0 0.00 0.06 0.00 47 1011.5
20260507124301 75 63 5.0 9.0 0.00 0.06 0.00 45 1011.5
20260507124159 75 82 5.0 8.0 0.00 0.06 0.00 48 1011.6
20260507124004 75 106 2.0 8.0 0.00 0.06 0.00 50 1011.6
20260507123900 75 73 8.0 8.0 0.00 0.06 0.00 49 1011.5
20260507123806 75 114 4.0 7.0 0.00 0.06 0.00 50 1011.5
20260507123702 75 59 2.0 7.0 0.00 0.06 0.00 47 1011.6
20260507123505 75 175 2.0 8.0 0.00 0.06 0.00 46 1011.6
20260507123300 74 111 1.0 8.0 0.00 0.06 0.00 44 1011.6
20260507123002 74 140 3.0 8.0 0.00 0.06 0.00 50 1011.6
20260507122903 74 127 1.0 8.0 0.00 0.06 0.00 46 1011.7
20260507122802 74 127 4.0 8.0 0.00 0.06 0.00 45 1011.6
20260507122659 74 124 3.0 8.0 0.00 0.06 0.00 43 1011.7
20260507122606 74 175 4.0 8.0 0.00 0.06 0.00 43 1011.7
20260507122503 74 184 7.0 8.0 0.00 0.06 0.00 45 1011.6
20260507122359 75 168 2.0 6.0 0.00 0.06 0.00 43 1011.6
20260507122201 74 198 4.0 6.0 0.00 0.06 0.00 50 1011.6
20260507122004 74 276 2.0 6.0 0.00 0.06 0.00 47 1011.6
20260507121900 74 258 3.0 6.0 0.00 0.06 0.00 47 1011.6
20260507121800 74 310 2.0 6.0 0.00 0.06 0.00 50 1011.6
20260507121601 74 302 4.0 6.0 0.00 0.06 0.00 47 1011.6
20260507121501 74 287 5.0 6.0 0.00 0.06 0.00 47 1011.6
20260507121404 74 279 0.0 6.0 0.00 0.06 0.00 45 1011.6
20260507121300 74 279 3.0 6.0 0.00 0.06 0.00 46 1011.7
20260507121200 74 321 2.0 6.0 0.00 0.06 0.00 50 1011.7
20260507121102 74 299 2.0 7.0 0.00 0.06 0.00 49 1011.7
20260507121025 74 299 3.0 7.0 0.00 0.06 0.00 49 1011.7
20260507120900 74 251 3.0 7.0 0.00 0.06 0.00 50 1011.7
20260507120804 74 232 4.0 7.0 0.00 0.06 0.00 52 1011.7
20260507120701 74 153 3.0 7.0 0.00 0.06 0.00 50 1011.7
20260507120601 74 182 1.0 7.0 0.00 0.06 0.00 53 1011.7
20260507120505 73 190 2.0 7.0 0.00 0.06 0.00 46 1011.7
20260507120400 74 234 3.0 7.0 0.00 0.06 0.00 49 1011.7
20260507120300 73 253 2.0 7.0 0.00 0.06 0.00 52 1011.7
20260507120159 73 291 5.0 7.0 0.00 0.06 0.00 48 1011.7
20260507120133 73 280 3.0 7.0 0.00 0.06 0.00 48 1011.7
20260507115908 73 220 6.0 7.0 0.00 0.06 0.00 49 1011.7
20260507115601 73 18 2.0 6.0 0.00 0.06 0.00 46 1011.8
20260507115501 73 34 4.0 6.0 0.00 0.06 0.00 49 1011.7
20260507115401 73 30 2.0 8.0 0.00 0.06 0.00 45 1011.8
20260507115159 73 44 3.0 8.0 0.00 0.06 0.00 49 1011.8
20260507115100 73 44 2.0 8.0 0.00 0.06 0.00 47 1011.8
20260507115004 73 44 3.0 8.0 0.00 0.06 0.00 47 1011.8
20260507114900 73 20 2.0 8.0 0.00 0.06 0.00 47 1011.8
20260507114800 73 41 4.0 8.0 0.00 0.06 0.00 49 1011.9
20260507114600 73 81 5.0 8.0 0.00 0.06 0.00 49 1011.8
20260507114501 73 77 4.0 8.0 0.00 0.06 0.00 49 1011.8
20260507114159 72 342 1.0 7.0 0.00 0.06 0.00 48 1011.9
20260507114102 73 342 1.0 7.0 0.00 0.06 0.00 48 1011.9
20260507114002 73 342 2.0 7.0 0.00 0.06 0.00 49 1011.9
20260507113900 73 339 3.0 7.0 0.00 0.06 0.00 54 1011.9
20260507113803 73 348 3.0 7.0 0.00 0.06 0.00 47 1011.8
20260507113700 73 47 4.0 7.0 0.00 0.06 0.00 49 1011.9
20260507113600 73 47 3.0 7.0 0.00 0.06 0.00 46 1011.9
20260507113359 73 63 2.0 7.0 0.00 0.06 0.00 53 1011.9
20260507113259 73 62 3.0 7.0 0.00 0.06 0.00 54 1011.9
20260507113202 73 79 6.0 7.0 0.00 0.06 0.00 54 1011.9
20260507113059 72 76 3.0 6.0 0.00 0.06 0.00 50 1011.9
20260507113003 72 117 3.0 6.0 0.00 0.06 0.00 50 1011.9
20260507112902 72 119 2.0 7.0 0.00 0.06 0.00 50 1012.0
20260507112701 72 175 3.0 7.0 0.00 0.06 0.00 50 1012.0
20260507112603 72 178 3.0 7.0 0.00 0.06 0.00 47 1012.0
20260507112459 72 185 1.0 7.0 0.00 0.06 0.00 50 1012.0
20260507112359 72 173 1.0 7.0 0.00 0.06 0.00 55 1012.0
20260507112306 72 173 2.0 8.0 0.00 0.06 0.00 54 1012.1
20260507112200 71 173 0.0 8.0 0.00 0.06 0.00 53 1012.1
20260507112004 71 163 2.0 8.0 0.00 0.06 0.00 52 1012.1
20260507111900 71 188 7.0 8.0 0.00 0.06 0.00 55 1012.1
20260507111800 71 312 1.0 8.0 0.00 0.06 0.00 53 1012.1
20260507111704 71 314 4.0 8.0 0.00 0.06 0.00 50 1012.1
20260507111600 71 250 3.0 8.0 0.00 0.06 0.00 53 1012.1
20260507111500 71 294 3.0 8.0 0.00 0.06 0.00 54 1012.1
20260507111406 71 329 3.0 8.0 0.00 0.06 0.00 54 1012.1
20260507111300 71 286 6.0 8.0 0.00 0.06 0.00 54 1012.1
20260507111159 71 261 6.0 6.0 0.00 0.06 0.00 54 1012.1
20260507111105 71 248 3.0 6.0 0.00 0.06 0.00 53 1012.1
20260507111032 71 267 2.0 6.0 0.00 0.06 0.00 53 1012.1
20260507110900 71 267 1.0 6.0 0.00 0.06 0.00 53 1012.1
20260507110804 71 267 1.0 8.0 0.00 0.06 0.00 52 1012.1
20260507110700 71 267 2.0 8.0 0.00 0.06 0.00 54 1012.1
20260507110600 71 282 1.0 8.0 0.00 0.06 0.00 55 1012.1
20260507110504 71 290 4.0 8.0 0.00 0.06 0.00 54 1012.1
20260507110359 70 230 5.0 8.0 0.00 0.06 0.00 54 1012.2
20260507110202 70 244 4.0 8.0 0.00 0.06 0.00 54 1012.2
20260507110100 70 239 5.0 8.0 0.00 0.06 0.00 56 1012.2
20260507110020 70 227 4.0 8.0 0.00 0.06 0.00 54 1012.2
20260507105903 70 227 3.0 8.0 0.00 0.06 0.00 54 1012.2
20260507105802 70 200 4.0 6.0 0.00 0.06 0.00 52 1012.2
20260507105701 70 233 3.0 9.0 0.00 0.06 0.00 51 1012.2
20260507105609 71 225 5.0 9.0 0.00 0.06 0.00 53 1012.2
20260507105500 71 235 4.0 10.0 0.00 0.06 0.00 53 1012.3
20260507105359 71 216 2.0 10.0 0.00 0.06 0.00 53 1012.3
20260507105159 71 217 3.0 10.0 0.00 0.06 0.00 54 1012.3
20260507105059 71 258 4.0 10.0 0.00 0.06 0.00 55 1012.2
20260507105043 71 274 4.0 10.0 0.00 0.06 0.00 55 1012.2
20260507104910 71 240 2.0 10.0 0.00 0.06 0.00 53 1012.3
20260507104801 71 238 6.0 10.0 0.00 0.06 0.00 58 1012.3
20260507104703 71 271 4.0 10.0 0.00 0.06 0.00 57 1012.3
20260507104501 71 252 5.0 9.0 0.00 0.06 0.00 58 1012.2
20260507104404 71 278 4.0 8.0 0.00 0.06 0.00 56 1012.2
20260507104300 71 236 2.0 8.0 0.00 0.06 0.00 55 1012.2
20260507104200 71 165 2.0 8.0 0.00 0.06 0.00 55 1012.3
20260507104104 71 203 1.0 8.0 0.00 0.06 0.00 52 1012.3
20260507104001 71 186 6.0 8.0 0.00 0.06 0.00 52 1012.3
20260507103900 71 205 4.0 9.0 0.00 0.06 0.00 53 1012.3
20260507103803 71 214 5.0 10.0 0.00 0.06 0.00 53 1012.3
20260507103701 71 244 4.0 10.0 0.00 0.06 0.00 53 1012.4
20260507103601 71 328 3.0 10.0 0.00 0.06 0.00 54 1012.4
20260507103503 71 293 1.0 10.0 0.00 0.06 0.00 54 1012.4
20260507103400 71 248 0.0 10.0 0.00 0.06 0.00 57 1012.4
20260507103300 71 335 2.0 10.0 0.00 0.06 0.00 56 1012.4
20260507103100 71 273 3.0 10.0 0.00 0.06 0.00 59 1012.4
20260507103001 71 267 4.0 10.0 0.00 0.06 0.00 55 1012.4
20260507102903 71 273 6.0 10.0 0.00 0.06 0.00 55 1012.4
20260507102800 70 257 5.0 10.0 0.00 0.06 0.00 56 1012.4
20260507102701 70 210 3.0 10.0 0.00 0.06 0.00 51 1012.3
20260507102459 70 186 3.0 10.0 0.00 0.06 0.00 52 1012.3
20260507102307 71 222 7.0 10.0 0.00 0.06 0.00 53 1012.3
20260507102200 70 229 4.0 9.0 0.00 0.06 0.00 52 1012.4
20260507102100 71 303 6.0 9.0 0.00 0.06 0.00 56 1012.5
20260507102007 71 286 7.0 9.0 0.00 0.06 0.00 53 1012.5
20260507101901 71 273 5.0 11.0 0.00 0.06 0.00 53 1012.4
20260507101808 71 304 5.0 12.0 0.00 0.06 0.00 54 1012.4
20260507101703 71 246 5.0 12.0 0.00 0.06 0.00 54 1012.4
20260507101600 70 213 4.0 12.0 0.00 0.06 0.00 53 1012.4
20260507101500 70 180 3.0 12.0 0.00 0.06 0.00 54 1012.4
20260507101402 70 222 2.0 12.0 0.00 0.06 0.00 51 1012.4
20260507101201 70 236 8.0 12.0 0.00 0.06 0.00 54 1012.4
20260507101101 70 193 6.0 12.0 0.00 0.06 0.00 52 1012.4
20260507100901 70 180 9.0 12.0 0.00 0.06 0.00 55 1012.4
20260507100803 70 176 5.0 8.0 0.00 0.06 0.00 52 1012.4
20260507100700 70 171 7.0 9.0 0.00 0.06 0.00 54 1012.4
20260507100600 70 174 4.0 9.0 0.00 0.06 0.00 54 1012.4
20260507100401 70 179 3.0 12.0 0.00 0.06 0.00 51 1012.4
20260507100301 70 166 3.0 12.0 0.00 0.06 0.00 56 1012.4
20260507100203 70 166 5.0 12.0 0.00 0.06 0.00 52 1012.5
20260507100124 70 200 5.0 12.0 0.00 0.06 0.00 51 1012.5
20260507100006 70 207 3.0 12.0 0.00 0.06 0.00 51 1012.5
20260507095900 70 314 2.0 12.0 0.00 0.06 0.00 49 1012.5
20260507095803 70 217 2.0 12.0 0.00 0.06 0.00 52 1012.5
20260507095700 70 215 7.0 12.0 0.00 0.06 0.00 55 1012.5
20260507095600 70 211 7.0 12.0 0.00 0.06 0.00 55 1012.5
20260507095503 70 225 9.0 12.0 0.00 0.06 0.00 55 1012.5
20260507095400 70 213 9.0 11.0 0.00 0.06 0.00 54 1012.5
20260507095301 70 208 5.0 11.0 0.00 0.06 0.00 55 1012.5
20260507095204 70 165 2.0 11.0 0.00 0.06 0.00 57 1012.5
20260507095100 70 161 3.0 11.0 0.00 0.06 0.00 55 1012.6
20260507094759 70 211 9.0 11.0 0.00 0.06 0.00 57 1012.5
20260507094700 70 215 7.0 10.0 0.00 0.06 0.00 57 1012.5
20260507094604 70 186 4.0 10.0 0.00 0.06 0.00 58 1012.5
20260507094501 70 164 3.0 10.0 0.00 0.06 0.00 56 1012.5
20260507094400 70 159 6.0 12.0 0.00 0.06 0.00 55 1012.5
20260507094304 70 201 6.0 12.0 0.00 0.06 0.00 57 1012.5
20260507094201 69 198 7.0 13.0 0.00 0.06 0.00 55 1012.4
20260507094059 69 188 3.0 13.0 0.00 0.06 0.00 56 1012.5
20260507093800 69 184 6.0 16.0 0.00 0.06 0.00 57 1012.5
20260507093707 69 265 3.0 17.0 0.00 0.06 0.00 55 1012.5
20260507093601 69 199 9.0 17.0 0.00 0.06 0.00 56 1012.5
20260507093501 69 209 5.0 19.0 0.00 0.06 0.00 54 1012.5
20260507093405 69 212 12.0 19.0 0.00 0.06 0.00 55 1012.5
20260507093302 69 178 12.0 19.0 0.00 0.06 0.00 55 1012.5
20260507093201 69 186 8.0 19.0 0.00 0.06 0.00 55 1012.5
20260507093107 69 182 10.0 19.0 0.00 0.06 0.00 57 1012.5
20260507092959 69 186 7.0 19.0 0.00 0.06 0.00 57 1012.5
20260507092900 69 183 12.0 19.0 0.00 0.06 0.00 58 1012.6
20260507092803 69 180 14.0 19.0 0.00 0.06 0.00 57 1012.5
20260507092700 69 196 10.0 19.0 0.00 0.06 0.00 54 1012.5
20260507092601 69 196 9.0 19.0 0.00 0.06 0.00 58 1012.5
20260507092503 69 186 18.0 19.0 0.00 0.06 0.00 59 1012.5
20260507092401 69 185 8.0 14.0 0.00 0.06 0.00 59 1012.5
20260507092300 69 173 5.0 14.0 0.00 0.06 0.00 57 1012.5
20260507092203 69 288 1.0 14.0 0.00 0.06 0.00 54 1012.5
20260507092100 69 282 4.0 14.0 0.00 0.06 0.00 56 1012.5
20260507092001 69 290 4.0 14.0 0.00 0.06 0.00 54 1012.6
20260507091902 69 250 9.0 14.0 0.00 0.06 0.00 58 1012.6
20260507091800 69 277 5.0 14.0 0.00 0.06 0.00 58 1012.6
20260507091500 69 231 10.0 14.0 0.00 0.06 0.00 59 1012.6
20260507091400 69 242 7.0 11.0 0.00 0.06 0.00 60 1012.5
20260507091302 69 219 9.0 15.0 0.00 0.06 0.00 56 1012.5
20260507091200 69 205 7.0 17.0 0.00 0.06 0.00 57 1012.5
20260507091100 69 173 7.0 17.0 0.00 0.06 0.00 55 1012.5
20260507091007 69 203 8.0 17.0 0.00 0.06 0.00 58 1012.5
20260507090901 69 219 12.0 17.0 0.00 0.06 0.00 56 1012.5
20260507090802 69 196 9.0 17.0 0.00 0.06 0.00 58 1012.5
20260507090702 69 186 7.0 17.0 0.00 0.06 0.00 57 1012.5